| time (UTC) | temp C | wind direction | speed KPH | gust KPH | rain 1hr cm | rain 24hr cm | rain mn cm | humidity % | barometer mb |
| 20260903073700 | 25 | 84 | 6.4 | 16.1 | 0.00 | 0.00 | 0.00 | 77 | 1012.1 |
| 20260903073600 | 25 | 92 | 6.4 | 16.1 | 0.00 | 0.00 | 0.00 | 77 | 1012.2 |
| 20260903073500 | 25 | 105 | 6.4 | 16.1 | 0.00 | 0.00 | 0.00 | 77 | 1012.1 |
| 20260903073400 | 25 | 104 | 8.0 | 16.1 | 0.00 | 0.00 | 0.00 | 77 | 1012.1 |
| 20260903073302 | 25 | 82 | 8.0 | 16.1 | 0.00 | 0.00 | 0.00 | 77 | 1012.3 |
| 20260903073203 | 25 | 110 | 8.0 | 16.1 | 0.00 | 0.00 | 0.00 | 77 | 1012.2 |
| 20260903073059 | 25 | 106 | 6.4 | 16.1 | 0.00 | 0.00 | 0.00 | 77 | 1012.2 |
| 20260903073000 | 25 | 111 | 6.4 | 16.1 | 0.00 | 0.00 | 0.00 | 77 | 1012.2 |
| 20260903072900 | 25 | 86 | 8.0 | 16.1 | 0.00 | 0.00 | 0.00 | 77 | 1012.2 |
| 20260903072800 | 25 | 99 | 8.0 | 16.1 | 0.00 | 0.00 | 0.00 | 77 | 1012.2 |
| 20260903072700 | 25 | 109 | 8.0 | 16.1 | 0.00 | 0.00 | 0.00 | 76 | 1012.3 |
| 20260903072559 | 25 | 113 | 6.4 | 14.5 | 0.00 | 0.00 | 0.00 | 77 | 1012.2 |
| 20260903072359 | 25 | 111 | 4.8 | 12.9 | 0.00 | 0.00 | 0.00 | 77 | 1012.2 |
| 20260903072300 | 25 | 107 | 4.8 | 12.9 | 0.00 | 0.00 | 0.00 | 77 | 1012.2 |
| 20260903072202 | 25 | 96 | 4.8 | 12.9 | 0.00 | 0.00 | 0.00 | 77 | 1012.2 |
| 20260903072101 | 25 | 86 | 6.4 | 12.9 | 0.00 | 0.00 | 0.00 | 76 | 1012.2 |
| 20260903072000 | 25 | 105 | 6.4 | 12.9 | 0.00 | 0.00 | 0.00 | 76 | 1012.2 |
| 20260903071901 | 25 | 109 | 6.4 | 12.9 | 0.00 | 0.00 | 0.00 | 76 | 1012.2 |
| 20260903071801 | 25 | 82 | 4.8 | 19.3 | 0.00 | 0.00 | 0.00 | 76 | 1012.2 |
| 20260903071701 | 25 | 103 | 3.2 | 19.3 | 0.00 | 0.00 | 0.00 | 76 | 1012.3 |
| 20260903071631 | 25 | 105 | 3.2 | 19.3 | 0.00 | 0.00 | 0.00 | 76 | 1010.4 |
| 20260903071601 | 25 | 105 | 3.2 | 19.3 | 0.00 | 0.00 | 0.00 | 76 | 1012.3 |
| 20260903071500 | 25 | 103 | 4.8 | 19.3 | 0.00 | 0.00 | 0.00 | 76 | 1012.3 |
| 20260903071359 | 25 | 111 | 6.4 | 19.3 | 0.00 | 0.00 | 0.00 | 76 | 1012.3 |
| 20260903071259 | 25 | 111 | 6.4 | 19.3 | 0.00 | 0.00 | 0.00 | 76 | 1012.3 |
| 20260903071200 | 25 | 84 | 6.4 | 19.3 | 0.00 | 0.00 | 0.00 | 76 | 1012.3 |
| 20260903071100 | 25 | 111 | 6.4 | 19.3 | 0.00 | 0.00 | 0.00 | 76 | 1012.3 |
| 20260903071000 | 25 | 130 | 8.0 | 19.3 | 0.00 | 0.00 | 0.00 | 76 | 1012.3 |
| 20260903070901 | 25 | 96 | 8.0 | 19.3 | 0.00 | 0.00 | 0.00 | 76 | 1012.3 |
| 20260903070801 | 25 | 116 | 6.4 | 14.5 | 0.00 | 0.00 | 0.00 | 76 | 1012.3 |
| 20260903070700 | 25 | 113 | 6.4 | 14.5 | 0.00 | 0.00 | 0.00 | 76 | 1012.3 |
| 20260903070602 | 25 | 107 | 8.0 | 14.5 | 0.00 | 0.00 | 0.00 | 76 | 1012.3 |
| 20260903070400 | 25 | 103 | 6.4 | 14.5 | 0.00 | 0.00 | 0.00 | 76 | 1012.4 |
| 20260903070105 | 25 | 109 | 4.8 | 16.1 | 0.00 | 0.00 | 0.00 | 76 | 1010.5 |
| 20260903070100 | 25 | 109 | 6.4 | 16.1 | 0.00 | 0.00 | 0.00 | 76 | 1012.4 |
| 20260903070001 | 25 | 133 | 6.4 | 16.1 | 0.00 | 0.00 | 0.00 | 76 | 1012.4 |
| 20260903065858 | 25 | 117 | 6.4 | 16.1 | 0.00 | 0.00 | 0.00 | 76 | 1012.4 |
| 20260903065758 | 25 | 109 | 8.0 | 17.7 | 0.00 | 0.00 | 0.00 | 76 | 1012.4 |
| 20260903065659 | 26 | 112 | 8.0 | 17.7 | 0.00 | 0.00 | 0.00 | 76 | 1012.4 |
| 20260903065558 | 26 | 106 | 9.7 | 17.7 | 0.00 | 0.00 | 0.00 | 76 | 1012.4 |
| 20260903065258 | 25 | 120 | 11.3 | 17.7 | 0.00 | 0.00 | 0.00 | 75 | 1012.4 |
| 20260903065158 | 26 | 107 | 9.7 | 17.7 | 0.00 | 0.00 | 0.00 | 75 | 1012.3 |
| 20260903065058 | 26 | 112 | 8.0 | 19.3 | 0.00 | 0.00 | 0.00 | 75 | 1012.3 |
| 20260903064958 | 26 | 115 | 9.7 | 20.9 | 0.00 | 0.00 | 0.00 | 75 | 1012.3 |
| 20260903064900 | 26 | 94 | 6.4 | 20.9 | 0.00 | 0.00 | 0.00 | 75 | 1012.3 |
| 20260903064759 | 25 | 117 | 6.4 | 22.5 | 0.00 | 0.00 | 0.00 | 75 | 1012.3 |
| 20260903064658 | 26 | 113 | 8.0 | 22.5 | 0.00 | 0.00 | 0.00 | 75 | 1012.3 |
| 20260903064605 | 26 | 96 | 9.7 | 22.5 | 0.00 | 0.00 | 0.00 | 75 | 1010.4 |
| 20260903064559 | 26 | 96 | 11.3 | 22.5 | 0.00 | 0.00 | 0.00 | 75 | 1012.3 |
| 20260903064459 | 25 | 114 | 12.9 | 22.5 | 0.00 | 0.00 | 0.00 | 75 | 1012.3 |
| 20260903064358 | 25 | 117 | 12.9 | 22.5 | 0.00 | 0.00 | 0.00 | 76 | 1012.3 |
| 20260903064259 | 25 | 121 | 12.9 | 22.5 | 0.00 | 0.00 | 0.00 | 76 | 1012.3 |
| 20260903064200 | 25 | 102 | 11.3 | 22.5 | 0.00 | 0.00 | 0.00 | 76 | 1012.3 |
| 20260903064058 | 25 | 104 | 9.7 | 22.5 | 0.00 | 0.00 | 0.00 | 75 | 1012.4 |
| 20260903063959 | 25 | 116 | 11.3 | 22.5 | 0.00 | 0.00 | 0.00 | 75 | 1012.3 |
| 20260903063900 | 25 | 103 | 11.3 | 22.5 | 0.00 | 0.00 | 0.00 | 75 | 1012.3 |
| 20260903063759 | 25 | 91 | 9.7 | 22.5 | 0.00 | 0.00 | 0.00 | 75 | 1012.4 |
| 20260903063659 | 25 | 89 | 8.0 | 22.5 | 0.00 | 0.00 | 0.00 | 75 | 1012.4 |
| 20260903063359 | 25 | 116 | 4.8 | 17.7 | 0.00 | 0.00 | 0.00 | 75 | 1012.4 |
| 20260903063200 | 25 | 113 | 4.8 | 17.7 | 0.00 | 0.00 | 0.00 | 75 | 1012.4 |
| 20260903063105 | 25 | 109 | 4.8 | 17.7 | 0.00 | 0.00 | 0.00 | 75 | 1010.5 |
| 20260903063100 | 25 | 109 | 6.4 | 17.7 | 0.00 | 0.00 | 0.00 | 75 | 1012.4 |
| 20260903062959 | 26 | 121 | 8.0 | 17.7 | 0.00 | 0.00 | 0.00 | 75 | 1012.5 |
| 20260903062859 | 25 | 111 | 9.7 | 17.7 | 0.00 | 0.00 | 0.00 | 75 | 1012.4 |
| 20260903062759 | 26 | 98 | 8.0 | 17.7 | 0.00 | 0.00 | 0.00 | 75 | 1012.5 |
| 20260903062559 | 26 | 64 | 3.2 | 14.5 | 0.00 | 0.00 | 0.00 | 74 | 1012.5 |
| 20260903062458 | 26 | 107 | 3.2 | 11.3 | 0.00 | 0.00 | 0.00 | 74 | 1012.5 |
| 20260903062359 | 26 | 121 | 3.2 | 11.3 | 0.00 | 0.00 | 0.00 | 74 | 1012.5 |
| 20260903062258 | 26 | 124 | 4.8 | 11.3 | 0.00 | 0.00 | 0.00 | 74 | 1012.5 |
| 20260903062158 | 26 | 128 | 4.8 | 14.5 | 0.00 | 0.00 | 0.00 | 74 | 1012.5 |
| 20260903062100 | 26 | 108 | 4.8 | 14.5 | 0.00 | 0.00 | 0.00 | 74 | 1012.5 |
| 20260903061900 | 26 | 127 | 3.2 | 14.5 | 0.00 | 0.00 | 0.00 | 74 | 1012.5 |
| 20260903061800 | 26 | 115 | 3.2 | 14.5 | 0.00 | 0.00 | 0.00 | 74 | 1012.5 |
| 20260903061659 | 26 | 118 | 6.4 | 14.5 | 0.00 | 0.00 | 0.00 | 74 | 1012.5 |
| 20260903061607 | 26 | 130 | 6.4 | 14.5 | 0.00 | 0.00 | 0.00 | 74 | 1010.6 |
| 20260903061600 | 26 | 130 | 8.0 | 14.5 | 0.00 | 0.00 | 0.00 | 74 | 1012.5 |
| 20260903061459 | 26 | 116 | 8.0 | 16.1 | 0.00 | 0.00 | 0.00 | 73 | 1012.5 |
| 20260903061300 | 26 | 115 | 6.4 | 16.1 | 0.00 | 0.00 | 0.00 | 73 | 1012.6 |
| 20260903061059 | 26 | 115 | 4.8 | 17.7 | 0.00 | 0.00 | 0.00 | 73 | 1012.6 |
| 20260903061000 | 26 | 119 | 6.4 | 17.7 | 0.00 | 0.00 | 0.00 | 73 | 1012.6 |
| 20260903060900 | 26 | 109 | 8.0 | 17.7 | 0.00 | 0.00 | 0.00 | 73 | 1012.6 |
| 20260903060759 | 26 | 111 | 9.7 | 19.3 | 0.00 | 0.00 | 0.00 | 73 | 1012.7 |
| 20260903060459 | 26 | 108 | 8.0 | 20.9 | 0.00 | 0.00 | 0.00 | 73 | 1012.7 |
| 20260903060359 | 26 | 115 | 9.7 | 24.1 | 0.00 | 0.00 | 0.00 | 73 | 1012.6 |
| 20260903060259 | 26 | 130 | 11.3 | 24.1 | 0.00 | 0.00 | 0.00 | 73 | 1012.6 |
| 20260903060159 | 26 | 108 | 11.3 | 24.1 | 0.00 | 0.00 | 0.00 | 73 | 1012.6 |
| 20260903060013 | 26 | 115 | 12.9 | 24.1 | 0.00 | 0.00 | 0.00 | 73 | 1010.7 |
| 20260903060005 | 26 | 115 | 14.5 | 24.1 | 0.00 | 0.00 | 0.00 | 73 | 1012.6 |
| 20260903055804 | 26 | 115 | 12.9 | 24.1 | 0.00 | 0.00 | 0.00 | 72 | 1012.6 |
| 20260903055705 | 26 | 133 | 14.5 | 24.1 | 0.00 | 0.00 | 0.00 | 72 | 1012.6 |
| 20260903055604 | 26 | 103 | 16.1 | 24.1 | 0.00 | 0.00 | 0.00 | 72 | 1012.6 |
| 20260903055503 | 26 | 131 | 16.1 | 24.1 | 0.00 | 0.00 | 0.00 | 72 | 1012.6 |
| 20260903055306 | 26 | 98 | 12.9 | 24.1 | 0.00 | 0.00 | 0.00 | 72 | 1012.7 |
| 20260903055203 | 26 | 141 | 12.9 | 24.1 | 0.00 | 0.00 | 0.00 | 72 | 1012.7 |
| 20260903055104 | 26 | 112 | 12.9 | 24.1 | 0.00 | 0.00 | 0.00 | 72 | 1012.8 |
| 20260903055004 | 26 | 121 | 11.3 | 24.1 | 0.00 | 0.00 | 0.00 | 71 | 1012.8 |
| 20260903054904 | 26 | 109 | 9.7 | 24.1 | 0.00 | 0.00 | 0.00 | 71 | 1012.7 |
| 20260903054805 | 26 | 125 | 11.3 | 24.1 | 0.00 | 0.00 | 0.00 | 71 | 1012.7 |
| 20260903054705 | 26 | 119 | 12.9 | 24.1 | 0.00 | 0.00 | 0.00 | 71 | 1012.7 |
| 20260903054504 | 26 | 113 | 12.9 | 27.4 | 0.00 | 0.00 | 0.00 | 71 | 1012.8 |
| 20260903054404 | 26 | 124 | 14.5 | 27.4 | 0.00 | 0.00 | 0.00 | 71 | 1012.8 |
| 20260903054305 | 26 | 127 | 14.5 | 27.4 | 0.00 | 0.00 | 0.00 | 71 | 1012.8 |
| 20260903054204 | 26 | 160 | 12.9 | 27.4 | 0.00 | 0.00 | 0.00 | 71 | 1012.8 |
| 20260903054104 | 26 | 83 | 14.5 | 27.4 | 0.00 | 0.00 | 0.00 | 71 | 1012.8 |
| 20260903053905 | 26 | 120 | 16.1 | 27.4 | 0.00 | 0.00 | 0.00 | 71 | 1012.8 |
| 20260903053704 | 26 | 107 | 17.7 | 27.4 | 0.00 | 0.00 | 0.00 | 70 | 1012.8 |
| 20260903053405 | 26 | 136 | 14.5 | 27.4 | 0.00 | 0.00 | 0.00 | 70 | 1012.8 |
| 20260903053303 | 27 | 132 | 14.5 | 27.4 | 0.00 | 0.00 | 0.00 | 69 | 1012.8 |
| 20260903053205 | 27 | 131 | 17.7 | 27.4 | 0.00 | 0.00 | 0.00 | 69 | 1012.8 |
| 20260903053005 | 27 | 105 | 16.1 | 27.4 | 0.00 | 0.00 | 0.00 | 69 | 1012.7 |
| 20260903052805 | 27 | 101 | 16.1 | 27.4 | 0.00 | 0.00 | 0.00 | 69 | 1012.7 |
| 20260903052705 | 27 | 107 | 16.1 | 27.4 | 0.00 | 0.00 | 0.00 | 69 | 1012.7 |
| 20260903052603 | 27 | 104 | 17.7 | 27.4 | 0.00 | 0.00 | 0.00 | 69 | 1012.7 |
| 20260903052504 | 27 | 106 | 16.1 | 27.4 | 0.00 | 0.00 | 0.00 | 69 | 1012.7 |
| 20260903052406 | 27 | 129 | 14.5 | 24.1 | 0.00 | 0.00 | 0.00 | 69 | 1012.7 |
| 20260903052306 | 27 | 109 | 14.5 | 24.1 | 0.00 | 0.00 | 0.00 | 68 | 1012.7 |
| 20260903052204 | 27 | 110 | 14.5 | 24.1 | 0.00 | 0.00 | 0.00 | 68 | 1012.7 |
| 20260903052105 | 27 | 100 | 14.5 | 24.1 | 0.00 | 0.00 | 0.00 | 68 | 1012.7 |
| 20260903052003 | 27 | 109 | 14.5 | 24.1 | 0.00 | 0.00 | 0.00 | 68 | 1012.7 |
| 20260903051904 | 27 | 116 | 16.1 | 24.1 | 0.00 | 0.00 | 0.00 | 68 | 1012.8 |
| 20260903051805 | 27 | 93 | 14.5 | 24.1 | 0.00 | 0.00 | 0.00 | 68 | 1012.7 |
| 20260903051705 | 27 | 121 | 12.9 | 25.7 | 0.00 | 0.00 | 0.00 | 68 | 1012.7 |
| 20260903051605 | 27 | 96 | 12.9 | 25.7 | 0.00 | 0.00 | 0.00 | 68 | 1012.7 |
| 20260903051505 | 27 | 110 | 16.1 | 25.7 | 0.00 | 0.00 | 0.00 | 68 | 1012.8 |
| 20260903051503 | 27 | 110 | 14.5 | 25.7 | 0.00 | 0.00 | 0.00 | 68 | 1010.9 |
| 20260903051405 | 27 | 86 | 14.5 | 25.7 | 0.00 | 0.00 | 0.00 | 67 | 1012.8 |
| 20260903051304 | 27 | 103 | 14.5 | 25.7 | 0.00 | 0.00 | 0.00 | 67 | 1012.8 |
| 20260903051104 | 27 | 102 | 12.9 | 25.7 | 0.00 | 0.00 | 0.00 | 67 | 1012.8 |
| 20260903051003 | 27 | 106 | 14.5 | 25.7 | 0.00 | 0.00 | 0.00 | 67 | 1012.8 |
| 20260903050903 | 27 | 126 | 16.1 | 27.4 | 0.00 | 0.00 | 0.00 | 67 | 1012.9 |
| 20260903050804 | 27 | 111 | 16.1 | 27.4 | 0.00 | 0.00 | 0.00 | 67 | 1012.9 |
| 20260903050706 | 27 | 114 | 12.9 | 27.4 | 0.00 | 0.00 | 0.00 | 66 | 1012.9 |
| 20260903050604 | 27 | 99 | 14.5 | 27.4 | 0.00 | 0.00 | 0.00 | 66 | 1012.8 |
| 20260903050503 | 27 | 107 | 12.9 | 27.4 | 0.00 | 0.00 | 0.00 | 66 | 1012.8 |
| 20260903050403 | 27 | 114 | 14.5 | 27.4 | 0.00 | 0.00 | 0.00 | 66 | 1012.8 |
| 20260903050303 | 27 | 111 | 16.1 | 27.4 | 0.00 | 0.00 | 0.00 | 66 | 1012.9 |
| 20260903050205 | 27 | 102 | 14.5 | 27.4 | 0.00 | 0.00 | 0.00 | 66 | 1012.7 |
| 20260903050105 | 27 | 114 | 16.1 | 27.4 | 0.00 | 0.00 | 0.00 | 66 | 1012.8 |
| 20260903050004 | 27 | 104 | 14.5 | 24.1 | 0.00 | 0.00 | 0.00 | 66 | 1012.9 |
| 20260903045903 | 27 | 98 | 14.5 | 20.9 | 0.00 | 0.00 | 0.00 | 66 | 1012.9 |
| 20260903045803 | 27 | 112 | 12.9 | 20.9 | 0.00 | 0.00 | 0.00 | 65 | 1012.9 |
| 20260903045704 | 27 | 105 | 12.9 | 20.9 | 0.00 | 0.00 | 0.00 | 65 | 1012.8 |
| 20260903045604 | 27 | 94 | 12.9 | 19.3 | 0.00 | 0.00 | 0.00 | 65 | 1012.9 |
| 20260903045503 | 27 | 124 | 14.5 | 19.3 | 0.00 | 0.00 | 0.00 | 65 | 1012.8 |
| 20260903045404 | 27 | 103 | 11.3 | 19.3 | 0.00 | 0.00 | 0.00 | 65 | 1012.8 |
| 20260903045306 | 27 | 115 | 11.3 | 19.3 | 0.00 | 0.00 | 0.00 | 65 | 1012.8 |
| 20260903045204 | 27 | 103 | 12.9 | 19.3 | 0.00 | 0.00 | 0.00 | 65 | 1012.8 |
| 20260903045104 | 27 | 113 | 12.9 | 20.9 | 0.00 | 0.00 | 0.00 | 65 | 1012.8 |
| 20260903044904 | 27 | 103 | 9.7 | 20.9 | 0.00 | 0.00 | 0.00 | 65 | 1012.8 |
| 20260903044804 | 27 | 94 | 11.3 | 20.9 | 0.00 | 0.00 | 0.00 | 65 | 1012.8 |
| 20260903044704 | 27 | 106 | 9.7 | 20.9 | 0.00 | 0.00 | 0.00 | 65 | 1012.9 |
| 20260903044605 | 27 | 116 | 11.3 | 20.9 | 0.00 | 0.00 | 0.00 | 65 | 1012.8 |
| 20260903044503 | 27 | 121 | 11.3 | 20.9 | 0.00 | 0.00 | 0.00 | 64 | 1012.8 |
| 20260903044303 | 28 | 106 | 11.3 | 20.9 | 0.00 | 0.00 | 0.00 | 64 | 1012.8 |
| 20260903044203 | 28 | 130 | 11.3 | 22.5 | 0.00 | 0.00 | 0.00 | 64 | 1012.8 |
| 20260903044103 | 28 | 121 | 11.3 | 22.5 | 0.00 | 0.00 | 0.00 | 64 | 1012.8 |
| 20260903044006 | 28 | 100 | 11.3 | 22.5 | 0.00 | 0.00 | 0.00 | 64 | 1012.8 |
| 20260903043904 | 28 | 136 | 11.3 | 22.5 | 0.00 | 0.00 | 0.00 | 64 | 1012.8 |
| 20260903043804 | 28 | 120 | 12.9 | 22.5 | 0.00 | 0.00 | 0.00 | 64 | 1012.8 |
| 20260903043704 | 28 | 115 | 11.3 | 22.5 | 0.00 | 0.00 | 0.00 | 64 | 1012.8 |
| 20260903043604 | 28 | 122 | 11.3 | 22.5 | 0.00 | 0.00 | 0.00 | 64 | 1012.8 |
| 20260903043504 | 28 | 109 | 11.3 | 22.5 | 0.00 | 0.00 | 0.00 | 64 | 1012.8 |
| 20260903043404 | 28 | 126 | 12.9 | 22.5 | 0.00 | 0.00 | 0.00 | 64 | 1012.8 |
| 20260903043304 | 28 | 119 | 11.3 | 22.5 | 0.00 | 0.00 | 0.00 | 63 | 1012.8 |
| 20260903043204 | 28 | 97 | 9.7 | 19.3 | 0.00 | 0.00 | 0.00 | 63 | 1012.8 |
| 20260903043104 | 28 | 108 | 9.7 | 19.3 | 0.00 | 0.00 | 0.00 | 63 | 1012.8 |
| 20260903043004 | 28 | 115 | 11.3 | 19.3 | 0.00 | 0.00 | 0.00 | 63 | 1012.8 |
| 20260903042904 | 28 | 110 | 12.9 | 22.5 | 0.00 | 0.00 | 0.00 | 63 | 1012.8 |
| 20260903042804 | 28 | 117 | 12.9 | 22.5 | 0.00 | 0.00 | 0.00 | 63 | 1012.8 |
| 20260903042704 | 28 | 128 | 12.9 | 22.5 | 0.00 | 0.00 | 0.00 | 63 | 1012.8 |
| 20260903042604 | 28 | 132 | 12.9 | 22.5 | 0.00 | 0.00 | 0.00 | 63 | 1012.8 |
| 20260903042504 | 28 | 121 | 11.3 | 22.5 | 0.00 | 0.00 | 0.00 | 63 | 1012.8 |
| 20260903042404 | 28 | 135 | 11.3 | 22.5 | 0.00 | 0.00 | 0.00 | 63 | 1012.8 |
| 20260903042306 | 28 | 126 | 11.3 | 22.5 | 0.00 | 0.00 | 0.00 | 63 | 1012.8 |
| 20260903042204 | 28 | 118 | 14.5 | 22.5 | 0.00 | 0.00 | 0.00 | 63 | 1012.8 |
| 20260903042104 | 28 | 121 | 12.9 | 22.5 | 0.00 | 0.00 | 0.00 | 63 | 1012.8 |
| 20260903042003 | 28 | 129 | 12.9 | 22.5 | 0.00 | 0.00 | 0.00 | 63 | 1012.8 |
| 20260903041903 | 28 | 131 | 9.7 | 22.5 | 0.00 | 0.00 | 0.00 | 63 | 1012.8 |
| 20260903041803 | 28 | 117 | 9.7 | 22.5 | 0.00 | 0.00 | 0.00 | 63 | 1012.8 |
| 20260903041604 | 28 | 120 | 12.9 | 22.5 | 0.00 | 0.00 | 0.00 | 63 | 1012.9 |
| 20260903041510 | 28 | 142 | 12.9 | 22.5 | 0.00 | 0.00 | 0.00 | 63 | 1010.9 |
| 20260903041504 | 28 | 142 | 14.5 | 22.5 | 0.00 | 0.00 | 0.00 | 63 | 1012.8 |
| 20260903041404 | 28 | 114 | 14.5 | 22.5 | 0.00 | 0.00 | 0.00 | 63 | 1012.9 |
| 20260903041304 | 28 | 141 | 12.9 | 19.3 | 0.00 | 0.00 | 0.00 | 63 | 1012.9 |
| 20260903041204 | 28 | 129 | 11.3 | 17.7 | 0.00 | 0.00 | 0.00 | 63 | 1012.9 |
| 20260903041104 | 28 | 140 | 11.3 | 17.7 | 0.00 | 0.00 | 0.00 | 63 | 1012.9 |
| 20260903041004 | 28 | 115 | 11.3 | 17.7 | 0.00 | 0.00 | 0.00 | 63 | 1012.9 |
| 20260903040904 | 28 | 130 | 12.9 | 17.7 | 0.00 | 0.00 | 0.00 | 63 | 1012.9 |
| 20260903040804 | 28 | 121 | 11.3 | 17.7 | 0.00 | 0.00 | 0.00 | 63 | 1012.9 |
| 20260903040703 | 28 | 107 | 9.7 | 17.7 | 0.00 | 0.00 | 0.00 | 63 | 1012.9 |
| 20260903040604 | 28 | 120 | 9.7 | 16.1 | 0.00 | 0.00 | 0.00 | 63 | 1012.9 |
| 20260903040504 | 28 | 114 | 9.7 | 19.3 | 0.00 | 0.00 | 0.00 | 63 | 1012.8 |
| 20260903040404 | 28 | 111 | 11.3 | 19.3 | 0.00 | 0.00 | 0.00 | 63 | 1013.0 |
| 20260903040304 | 28 | 109 | 11.3 | 19.3 | 0.00 | 0.00 | 0.00 | 63 | 1012.9 |
| 20260903040203 | 28 | 121 | 9.7 | 24.1 | 0.00 | 0.00 | 0.00 | 62 | 1012.9 |
| 20260903040104 | 28 | 120 | 9.7 | 24.1 | 0.00 | 0.00 | 0.00 | 62 | 1013.0 |
| 20260903040008 | 28 | 116 | 8.0 | 24.1 | 0.00 | 0.00 | 0.00 | 62 | 1011.0 |
| 20260903035905 | 28 | 108 | 11.3 | 24.1 | 0.00 | 0.00 | 0.00 | 62 | 1013.0 |
| 20260903035804 | 28 | 113 | 11.3 | 24.1 | 0.00 | 0.00 | 0.00 | 62 | 1013.0 |
| 20260903035704 | 28 | 111 | 11.3 | 24.1 | 0.00 | 0.00 | 0.00 | 62 | 1013.0 |
| 20260903035605 | 28 | 109 | 12.9 | 24.1 | 0.00 | 0.00 | 0.00 | 62 | 1013.0 |
| 20260903035503 | 28 | 108 | 16.1 | 24.1 | 0.00 | 0.00 | 0.00 | 62 | 1013.0 |
| 20260903035405 | 28 | 139 | 16.1 | 24.1 | 0.00 | 0.00 | 0.00 | 62 | 1013.1 |
| 20260903035306 | 28 | 128 | 14.5 | 24.1 | 0.00 | 0.00 | 0.00 | 62 | 1013.0 |
| 20260903035104 | 28 | 108 | 11.3 | 17.7 | 0.00 | 0.00 | 0.00 | 62 | 1013.0 |
| 20260903035004 | 28 | 121 | 11.3 | 17.7 | 0.00 | 0.00 | 0.00 | 62 | 1013.1 |
| 20260903034804 | 28 | 111 | 8.0 | 17.7 | 0.00 | 0.00 | 0.00 | 61 | 1013.0 |
| 20260903034604 | 29 | 126 | 6.4 | 19.3 | 0.00 | 0.00 | 0.00 | 61 | 1013.1 |
| 20260903034504 | 29 | 128 | 8.0 | 19.3 | 0.00 | 0.00 | 0.00 | 60 | 1013.1 |
| 20260903034404 | 29 | 123 | 9.7 | 19.3 | 0.00 | 0.00 | 0.00 | 60 | 1013.1 |
| 20260903034304 | 29 | 117 | 8.0 | 19.3 | 0.00 | 0.00 | 0.00 | 60 | 1013.1 |
| 20260903034204 | 29 | 151 | 6.4 | 19.3 | 0.00 | 0.00 | 0.00 | 60 | 1013.1 |
| 20260903034104 | 29 | 121 | 6.4 | 19.3 | 0.00 | 0.00 | 0.00 | 60 | 1013.1 |
| 20260903034005 | 29 | 118 | 8.0 | 19.3 | 0.00 | 0.00 | 0.00 | 60 | 1013.1 |
| 20260903033905 | 29 | 128 | 9.7 | 19.3 | 0.00 | 0.00 | 0.00 | 60 | 1013.0 |
| 20260903033804 | 29 | 110 | 12.9 | 19.3 | 0.00 | 0.00 | 0.00 | 60 | 1013.0 |
| 20260903033704 | 29 | 112 | 12.9 | 19.3 | 0.00 | 0.00 | 0.00 | 60 | 1013.1 |
| 20260903033504 | 29 | 121 | 11.3 | 19.3 | 0.00 | 0.00 | 0.00 | 59 | 1013.0 |
| 20260903033404 | 29 | 115 | 11.3 | 20.9 | 0.00 | 0.00 | 0.00 | 59 | 1013.0 |
| 20260903033105 | 29 | 103 | 12.9 | 20.9 | 0.00 | 0.00 | 0.00 | 59 | 1013.0 |
| 20260903033004 | 29 | 119 | 11.3 | 20.9 | 0.00 | 0.00 | 0.00 | 59 | 1011.1 |
| 20260903032904 | 29 | 121 | 12.9 | 20.9 | 0.00 | 0.00 | 0.00 | 59 | 1013.0 |
| 20260903032804 | 30 | 102 | 12.9 | 20.9 | 0.00 | 0.00 | 0.00 | 59 | 1012.9 |
| 20260903032704 | 30 | 120 | 14.5 | 20.9 | 0.00 | 0.00 | 0.00 | 59 | 1012.8 |
| 20260903032604 | 30 | 117 | 14.5 | 20.9 | 0.00 | 0.00 | 0.00 | 59 | 1012.8 |
| 20260903032503 | 30 | 115 | 14.5 | 19.3 | 0.00 | 0.00 | 0.00 | 59 | 1012.8 |
| 20260903032404 | 30 | 118 | 12.9 | 19.3 | 0.00 | 0.00 | 0.00 | 58 | 1012.8 |
| 20260903032305 | 30 | 105 | 12.9 | 17.7 | 0.00 | 0.00 | 0.00 | 58 | 1012.8 |
| 20260903032203 | 30 | 122 | 11.3 | 17.7 | 0.00 | 0.00 | 0.00 | 58 | 1012.8 |
| 20260903032103 | 30 | 129 | 11.3 | 17.7 | 0.00 | 0.00 | 0.00 | 58 | 1012.8 |
| 20260903031904 | 30 | 113 | 9.7 | 17.7 | 0.00 | 0.00 | 0.00 | 58 | 1012.8 |
| 20260903031805 | 30 | 105 | 9.7 | 17.7 | 0.00 | 0.00 | 0.00 | 58 | 1012.8 |
| 20260903031611 | 30 | 117 | 8.0 | 17.7 | 0.00 | 0.00 | 0.00 | 58 | 1012.9 |
| 20260903031504 | 30 | 125 | 9.7 | 17.7 | 0.00 | 0.00 | 0.00 | 57 | 1012.8 |
| 20260903031404 | 30 | 105 | 8.0 | 17.7 | 0.00 | 0.00 | 0.00 | 57 | 1012.8 |
| 20260903031303 | 30 | 112 | 8.0 | 17.7 | 0.00 | 0.00 | 0.00 | 57 | 1012.8 |
| 20260903031204 | 30 | 130 | 8.0 | 17.7 | 0.00 | 0.00 | 0.00 | 57 | 1012.8 |
| 20260903031104 | 30 | 117 | 8.0 | 17.7 | 0.00 | 0.00 | 0.00 | 57 | 1012.8 |
| 20260903031004 | 30 | 117 | 8.0 | 19.3 | 0.00 | 0.00 | 0.00 | 57 | 1012.7 |
| 20260903030904 | 30 | 111 | 8.0 | 19.3 | 0.00 | 0.00 | 0.00 | 57 | 1012.7 |
| 20260903030803 | 30 | 121 | 9.7 | 19.3 | 0.00 | 0.00 | 0.00 | 57 | 1012.7 |
| 20260903030704 | 30 | 117 | 9.7 | 19.3 | 0.00 | 0.00 | 0.00 | 57 | 1012.8 |
| 20260903030603 | 30 | 117 | 11.3 | 19.3 | 0.00 | 0.00 | 0.00 | 57 | 1012.7 |
| 20260903030403 | 30 | 130 | 14.5 | 17.7 | 0.00 | 0.00 | 0.00 | 57 | 1012.7 |
| 20260903030205 | 30 | 111 | 11.3 | 17.7 | 0.00 | 0.00 | 0.00 | 56 | 1012.7 |
| 20260903030104 | 30 | 125 | 9.7 | 17.7 | 0.00 | 0.00 | 0.00 | 56 | 1012.7 |
| 20260903030004 | 30 | 108 | 9.7 | 17.7 | 0.00 | 0.00 | 0.00 | 56 | 1010.7 |
| 20260903025903 | 30 | 101 | 11.3 | 17.7 | 0.00 | 0.00 | 0.00 | 56 | 1012.6 |
| 20260903025803 | 30 | 114 | 11.3 | 17.7 | 0.00 | 0.00 | 0.00 | 56 | 1012.6 |
| 20260903025704 | 30 | 99 | 11.3 | 17.7 | 0.00 | 0.00 | 0.00 | 56 | 1012.6 |
| 20260903025603 | 30 | 109 | 8.0 | 17.7 | 0.00 | 0.00 | 0.00 | 56 | 1012.6 |
| 20260903025504 | 30 | 114 | 8.0 | 17.7 | 0.00 | 0.00 | 0.00 | 56 | 1012.6 |
| 20260903025404 | 30 | 108 | 9.7 | 17.7 | 0.00 | 0.00 | 0.00 | 56 | 1012.6 |
| 20260903025306 | 30 | 109 | 9.7 | 17.7 | 0.00 | 0.00 | 0.00 | 56 | 1012.6 |
| 20260903025204 | 30 | 117 | 11.3 | 17.7 | 0.00 | 0.00 | 0.00 | 56 | 1012.6 |
| 20260903025004 | 30 | 103 | 11.3 | 19.3 | 0.00 | 0.00 | 0.00 | 56 | 1012.5 |
| 20260903024904 | 30 | 98 | 9.7 | 19.3 | 0.00 | 0.00 | 0.00 | 55 | 1012.5 |
| 20260903024704 | 30 | 95 | 11.3 | 19.3 | 0.00 | 0.00 | 0.00 | 55 | 1012.5 |
| 20260903024604 | 30 | 90 | 11.3 | 19.3 | 0.00 | 0.00 | 0.00 | 55 | 1012.5 |
| 20260903024505 | 30 | 126 | 11.3 | 19.3 | 0.00 | 0.00 | 0.00 | 55 | 1012.6 |
| 20260903024404 | 30 | 103 | 11.3 | 19.3 | 0.00 | 0.00 | 0.00 | 55 | 1012.5 |
| 20260903024304 | 30 | 89 | 9.7 | 19.3 | 0.00 | 0.00 | 0.00 | 55 | 1012.5 |
| 20260903024204 | 30 | 98 | 9.7 | 19.3 | 0.00 | 0.00 | 0.00 | 55 | 1012.5 |
| 20260903024104 | 30 | 101 | 8.0 | 19.3 | 0.00 | 0.00 | 0.00 | 55 | 1012.5 |
| 20260903024004 | 30 | 112 | 11.3 | 19.3 | 0.00 | 0.00 | 0.00 | 55 | 1012.5 |
| 20260903023904 | 30 | 103 | 12.9 | 19.3 | 0.00 | 0.00 | 0.00 | 55 | 1012.5 |
| 20260903023803 | 30 | 101 | 11.3 | 19.3 | 0.00 | 0.00 | 0.00 | 55 | 1012.4 |
| 20260903023704 | 30 | 107 | 9.7 | 16.1 | 0.00 | 0.00 | 0.00 | 55 | 1012.5 |
| 20260903023604 | 30 | 113 | 8.0 | 14.5 | 0.00 | 0.00 | 0.00 | 55 | 1012.5 |
| 20260903023504 | 30 | 141 | 6.4 | 14.5 | 0.00 | 0.00 | 0.00 | 55 | 1012.4 |
| 20260903023404 | 30 | 109 | 8.0 | 14.5 | 0.00 | 0.00 | 0.00 | 55 | 1012.4 |
| 20260903023304 | 30 | 110 | 8.0 | 19.3 | 0.00 | 0.00 | 0.00 | 55 | 1012.4 |
| 20260903023104 | 31 | 122 | 8.0 | 19.3 | 0.00 | 0.00 | 0.00 | 54 | 1012.4 |
| 20260903023015 | 31 | 105 | 6.4 | 19.3 | 0.00 | 0.00 | 0.00 | 54 | 1010.5 |
| 20260903023005 | 31 | 113 | 8.0 | 19.3 | 0.00 | 0.00 | 0.00 | 54 | 1012.4 |
| 20260903022904 | 31 | 105 | 9.7 | 19.3 | 0.00 | 0.00 | 0.00 | 54 | 1012.4 |
| 20260903022804 | 31 | 107 | 9.7 | 19.3 | 0.00 | 0.00 | 0.00 | 54 | 1012.3 |
| 20260903022704 | 31 | 109 | 9.7 | 19.3 | 0.00 | 0.00 | 0.00 | 54 | 1012.3 |
| 20260903022603 | 31 | 111 | 8.0 | 19.3 | 0.00 | 0.00 | 0.00 | 54 | 1012.3 |
| 20260903022505 | 31 | 126 | 9.7 | 19.3 | 0.00 | 0.00 | 0.00 | 54 | 1012.3 |
| 20260903022204 | 31 | 128 | 9.7 | 19.3 | 0.00 | 0.00 | 0.00 | 54 | 1012.2 |
| 20260903022104 | 31 | 108 | 8.0 | 19.3 | 0.00 | 0.00 | 0.00 | 54 | 1012.2 |
| 20260903022004 | 31 | 107 | 8.0 | 19.3 | 0.00 | 0.00 | 0.00 | 54 | 1012.3 |
| 20260903021904 | 31 | 110 | 9.7 | 19.3 | 0.00 | 0.00 | 0.00 | 54 | 1012.2 |
| 20260903021805 | 31 | 101 | 9.7 | 19.3 | 0.00 | 0.00 | 0.00 | 54 | 1012.1 |
| 20260903021704 | 31 | 116 | 8.0 | 19.3 | 0.00 | 0.00 | 0.00 | 54 | 1012.1 |
| 20260903021505 | 31 | 110 | 8.0 | 17.7 | 0.00 | 0.00 | 0.00 | 54 | 1010.3 |
| 20260903021503 | 31 | 110 | 9.7 | 17.7 | 0.00 | 0.00 | 0.00 | 54 | 1012.1 |
| 20260903021403 | 31 | 104 | 11.3 | 17.7 | 0.00 | 0.00 | 0.00 | 54 | 1012.1 |
| 20260903021304 | 31 | 98 | 8.0 | 17.7 | 0.00 | 0.00 | 0.00 | 53 | 1012.1 |
| 20260903021105 | 31 | 117 | 8.0 | 19.3 | 0.00 | 0.00 | 0.00 | 53 | 1012.0 |
| 20260903021004 | 31 | 97 | 9.7 | 19.3 | 0.00 | 0.00 | 0.00 | 53 | 1012.0 |
| 20260903020906 | 31 | 112 | 11.3 | 19.3 | 0.00 | 0.00 | 0.00 | 53 | 1012.0 |
| 20260903020805 | 31 | 111 | 9.7 | 19.3 | 0.00 | 0.00 | 0.00 | 53 | 1011.9 |
| 20260903020704 | 31 | 96 | 9.7 | 19.3 | 0.00 | 0.00 | 0.00 | 53 | 1011.9 |
| 20260903020605 | 31 | 113 | 8.0 | 19.3 | 0.00 | 0.00 | 0.00 | 53 | 1011.9 |
| 20260903020505 | 31 | 108 | 11.3 | 19.3 | 0.00 | 0.00 | 0.00 | 53 | 1011.9 |
| 20260903020304 | 31 | 62 | 11.3 | 19.3 | 0.00 | 0.00 | 0.00 | 53 | 1011.9 |
| 20260903020204 | 31 | 122 | 9.7 | 19.3 | 0.00 | 0.00 | 0.00 | 53 | 1011.8 |
| 20260903020104 | 31 | 112 | 9.7 | 19.3 | 0.00 | 0.00 | 0.00 | 53 | 1011.9 |
| 20260903020003 | 31 | 121 | 11.3 | 19.3 | 0.00 | 0.00 | 0.00 | 53 | 1010.0 |
| 20260903015903 | 31 | 134 | 11.3 | 19.3 | 0.00 | 0.00 | 0.00 | 53 | 1011.8 |
| 20260903015603 | 31 | 115 | 11.3 | 19.3 | 0.00 | 0.00 | 0.00 | 53 | 1011.8 |
| 20260903015504 | 31 | 111 | 9.7 | 19.3 | 0.00 | 0.00 | 0.00 | 53 | 1011.8 |
| 20260903015402 | 31 | 114 | 9.7 | 19.3 | 0.00 | 0.00 | 0.00 | 53 | 1011.8 |
| 20260903015305 | 31 | 122 | 9.7 | 19.3 | 0.00 | 0.00 | 0.00 | 53 | 1011.7 |
| 20260903015203 | 31 | 107 | 11.3 | 20.9 | 0.00 | 0.00 | 0.00 | 53 | 1011.7 |
| 20260903015003 | 31 | 106 | 14.5 | 22.5 | 0.00 | 0.00 | 0.00 | 53 | 1011.7 |
| 20260903014803 | 31 | 107 | 14.5 | 22.5 | 0.00 | 0.00 | 0.00 | 53 | 1011.7 |
| 20260903014704 | 31 | 116 | 14.5 | 22.5 | 0.00 | 0.00 | 0.00 | 53 | 1011.7 |
| 20260903014504 | 31 | 115 | 14.5 | 22.5 | 0.00 | 0.00 | 0.00 | 53 | 1009.8 |
| 20260903014403 | 31 | 115 | 16.1 | 22.5 | 0.00 | 0.00 | 0.00 | 53 | 1011.7 |
| 20260903014303 | 31 | 103 | 12.9 | 22.5 | 0.00 | 0.00 | 0.00 | 53 | 1011.7 |
| 20260903014203 | 31 | 123 | 9.7 | 19.3 | 0.00 | 0.00 | 0.00 | 53 | 1011.6 |
| 20260903014102 | 31 | 105 | 6.4 | 16.1 | 0.00 | 0.00 | 0.00 | 53 | 1011.6 |
| 20260903014003 | 31 | 115 | 8.0 | 16.1 | 0.00 | 0.00 | 0.00 | 53 | 1011.6 |
| 20260903013803 | 31 | 112 | 9.7 | 19.3 | 0.00 | 0.00 | 0.00 | 53 | 1011.5 |
| 20260903013703 | 31 | 109 | 9.7 | 19.3 | 0.00 | 0.00 | 0.00 | 53 | 1011.5 |
| 20260903013603 | 31 | 118 | 9.7 | 19.3 | 0.00 | 0.00 | 0.00 | 53 | 1011.5 |
| 20260903013503 | 31 | 98 | 8.0 | 19.3 | 0.00 | 0.00 | 0.00 | 53 | 1011.5 |
| 20260903013402 | 31 | 101 | 6.4 | 19.3 | 0.00 | 0.00 | 0.00 | 53 | 1011.5 |
| 20260903013303 | 32 | 126 | 6.4 | 19.3 | 0.00 | 0.00 | 0.00 | 53 | 1011.5 |
| 20260903013203 | 32 | 105 | 9.7 | 19.3 | 0.00 | 0.00 | 0.00 | 53 | 1011.5 |
| 20260903013103 | 32 | 94 | 11.3 | 19.3 | 0.00 | 0.00 | 0.00 | 53 | 1011.5 |
| 20260903013004 | 32 | 120 | 8.0 | 19.3 | 0.00 | 0.00 | 0.00 | 53 | 1009.6 |
| 20260903012902 | 32 | 117 | 8.0 | 19.3 | 0.00 | 0.00 | 0.00 | 53 | 1011.5 |
| 20260903012803 | 32 | 109 | 8.0 | 19.3 | 0.00 | 0.00 | 0.00 | 53 | 1011.4 |
| 20260903012702 | 32 | 96 | 9.7 | 19.3 | 0.00 | 0.00 | 0.00 | 53 | 1011.4 |
| 20260903012602 | 32 | 94 | 9.7 | 17.7 | 0.00 | 0.00 | 0.00 | 53 | 1011.4 |
| 20260903012502 | 32 | 98 | 11.3 | 17.7 | 0.00 | 0.00 | 0.00 | 53 | 1011.4 |
| 20260903012402 | 32 | 118 | 12.9 | 17.7 | 0.00 | 0.00 | 0.00 | 53 | 1011.5 |
| 20260903012306 | 32 | 111 | 11.3 | 17.7 | 0.00 | 0.00 | 0.00 | 53 | 1011.5 |
| 20260903012203 | 32 | 94 | 11.3 | 17.7 | 0.00 | 0.00 | 0.00 | 53 | 1011.5 |
| 20260903012103 | 32 | 113 | 9.7 | 16.1 | 0.00 | 0.00 | 0.00 | 53 | 1011.4 |
| 20260903012003 | 32 | 100 | 8.0 | 16.1 | 0.00 | 0.00 | 0.00 | 53 | 1011.4 |
| 20260903011903 | 32 | 109 | 6.4 | 16.1 | 0.00 | 0.00 | 0.00 | 53 | 1011.4 |
| 20260903011802 | 32 | 116 | 8.0 | 17.7 | 0.00 | 0.00 | 0.00 | 53 | 1011.4 |
| 20260903011703 | 32 | 113 | 9.7 | 17.7 | 0.00 | 0.00 | 0.00 | 53 | 1011.4 |
| 20260903011602 | 32 | 132 | 8.0 | 17.7 | 0.00 | 0.00 | 0.00 | 53 | 1011.4 |
| 20260903011503 | 32 | 96 | 6.4 | 17.7 | 0.00 | 0.00 | 0.00 | 53 | 1009.4 |
| 20260903011402 | 32 | 98 | 6.4 | 17.7 | 0.00 | 0.00 | 0.00 | 53 | 1011.4 |
| 20260903011303 | 32 | 110 | 6.4 | 17.7 | 0.00 | 0.00 | 0.00 | 53 | 1011.4 |
| 20260903011204 | 32 | 107 | 8.0 | 17.7 | 0.00 | 0.00 | 0.00 | 52 | 1011.3 |
| 20260903011103 | 32 | 115 | 9.7 | 19.3 | 0.00 | 0.00 | 0.00 | 52 | 1011.3 |
| 20260903011003 | 32 | 108 | 11.3 | 19.3 | 0.00 | 0.00 | 0.00 | 52 | 1011.3 |
| 20260903010802 | 32 | 101 | 6.4 | 19.3 | 0.00 | 0.00 | 0.00 | 52 | 1011.3 |
| 20260903010702 | 32 | 111 | 6.4 | 19.3 | 0.00 | 0.00 | 0.00 | 52 | 1011.3 |
| 20260903010603 | 32 | 101 | 9.7 | 19.3 | 0.00 | 0.00 | 0.00 | 52 | 1011.3 |
| 20260903010303 | 32 | 107 | 11.3 | 19.3 | 0.00 | 0.00 | 0.00 | 51 | 1011.2 |
| 20260903010004 | 32 | 112 | 11.3 | 22.5 | 0.00 | 0.00 | 0.00 | 51 | 1011.2 |
| 20260903005903 | 32 | 120 | 12.9 | 22.5 | 0.00 | 0.00 | 0.00 | 50 | 1011.2 |
| 20260903005803 | 32 | 115 | 11.3 | 22.5 | 0.00 | 0.00 | 0.00 | 50 | 1011.2 |
| 20260903005703 | 33 | 120 | 11.3 | 25.7 | 0.00 | 0.00 | 0.00 | 50 | 1011.2 |
| 20260903005602 | 33 | 107 | 12.9 | 25.7 | 0.00 | 0.00 | 0.00 | 50 | 1011.3 |
| 20260903005502 | 33 | 112 | 14.5 | 25.7 | 0.00 | 0.00 | 0.00 | 50 | 1011.2 |
| 20260903005306 | 33 | 124 | 11.3 | 25.7 | 0.00 | 0.00 | 0.00 | 50 | 1011.2 |
| 20260903005203 | 33 | 118 | 12.9 | 25.7 | 0.00 | 0.00 | 0.00 | 50 | 1011.2 |
| 20260903005004 | 33 | 94 | 16.1 | 25.7 | 0.00 | 0.00 | 0.00 | 49 | 1011.1 |
| 20260903004903 | 33 | 101 | 16.1 | 25.7 | 0.00 | 0.00 | 0.00 | 49 | 1011.1 |
| 20260903004803 | 33 | 101 | 14.5 | 24.1 | 0.00 | 0.00 | 0.00 | 49 | 1011.1 |
| 20260903004704 | 33 | 93 | 14.5 | 24.1 | 0.00 | 0.00 | 0.00 | 48 | 1011.1 |
| 20260903004603 | 33 | 107 | 12.9 | 24.1 | 0.00 | 0.00 | 0.00 | 48 | 1011.1 |
| 20260903004504 | 33 | 95 | 11.3 | 22.5 | 0.00 | 0.00 | 0.00 | 47 | 1011.1 |
| 20260903004403 | 33 | 107 | 8.0 | 20.9 | 0.00 | 0.00 | 0.00 | 47 | 1011.1 |
| 20260903004303 | 33 | 106 | 8.0 | 20.9 | 0.00 | 0.00 | 0.00 | 47 | 1011.1 |
| 20260903004204 | 33 | 109 | 8.0 | 20.9 | 0.00 | 0.00 | 0.00 | 47 | 1011.1 |
| 20260903004102 | 33 | 109 | 6.4 | 20.9 | 0.00 | 0.00 | 0.00 | 47 | 1011.1 |
| 20260903004003 | 34 | 110 | 8.0 | 20.9 | 0.00 | 0.00 | 0.00 | 47 | 1011.1 |
| 20260903003902 | 34 | 87 | 9.7 | 22.5 | 0.00 | 0.00 | 0.00 | 47 | 1011.1 |
| 20260903003803 | 34 | 100 | 12.9 | 22.5 | 0.00 | 0.00 | 0.00 | 46 | 1011.1 |
| 20260903003703 | 34 | 111 | 12.9 | 22.5 | 0.00 | 0.00 | 0.00 | 46 | 1011.1 |
| 20260903003503 | 34 | 79 | 9.7 | 22.5 | 0.00 | 0.00 | 0.00 | 46 | 1011.1 |
| 20260903003403 | 34 | 96 | 11.3 | 22.5 | 0.00 | 0.00 | 0.00 | 46 | 1011.1 |
| 20260903003303 | 34 | 91 | 14.5 | 20.9 | 0.00 | 0.00 | 0.00 | 46 | 1011.0 |
| 20260903003202 | 34 | 99 | 14.5 | 20.9 | 0.00 | 0.00 | 0.00 | 45 | 1011.0 |
| 20260903003102 | 34 | 109 | 14.5 | 20.9 | 0.00 | 0.00 | 0.00 | 45 | 1011.1 |
| 20260903003002 | 35 | 105 | 11.3 | 17.7 | 0.00 | 0.00 | 0.00 | 45 | 1009.1 |
| 20260903002902 | 35 | 102 | 11.3 | 17.7 | 0.00 | 0.00 | 0.00 | 45 | 1011.0 |
| 20260903002802 | 35 | 121 | 9.7 | 17.7 | 0.00 | 0.00 | 0.00 | 45 | 1011.1 |
| 20260903002703 | 35 | 117 | 8.0 | 17.7 | 0.00 | 0.00 | 0.00 | 45 | 1011.0 |
| 20260903002603 | 35 | 101 | 8.0 | 17.7 | 0.00 | 0.00 | 0.00 | 45 | 1011.0 |
| 20260903002402 | 35 | 87 | 6.4 | 17.7 | 0.00 | 0.00 | 0.00 | 44 | 1010.9 |
| 20260903002306 | 35 | 107 | 8.0 | 17.7 | 0.00 | 0.00 | 0.00 | 44 | 1010.9 |
| 20260903002202 | 35 | 86 | 9.7 | 17.7 | 0.00 | 0.00 | 0.00 | 44 | 1010.9 |
| 20260903002102 | 35 | 76 | 11.3 | 19.3 | 0.00 | 0.00 | 0.00 | 44 | 1010.9 |
| 20260903002003 | 35 | 70 | 9.7 | 19.3 | 0.00 | 0.00 | 0.00 | 44 | 1010.9 |
| 20260903001902 | 35 | 68 | 9.7 | 19.3 | 0.00 | 0.00 | 0.00 | 44 | 1010.9 |
| 20260903001803 | 35 | 80 | 8.0 | 25.7 | 0.00 | 0.00 | 0.00 | 44 | 1010.9 |
| 20260903001702 | 35 | 74 | 8.0 | 25.7 | 0.00 | 0.00 | 0.00 | 44 | 1010.9 |
| 20260903001603 | 35 | 88 | 11.3 | 25.7 | 0.00 | 0.00 | 0.00 | 44 | 1010.9 |
| 20260903001504 | 35 | 101 | 9.7 | 25.7 | 0.00 | 0.00 | 0.00 | 44 | 1008.9 |
| 20260903001302 | 35 | 92 | 9.7 | 25.7 | 0.00 | 0.00 | 0.00 | 44 | 1010.9 |
| 20260903001203 | 35 | 88 | 12.9 | 25.7 | 0.00 | 0.00 | 0.00 | 44 | 1010.9 |
| 20260903001003 | 35 | 85 | 12.9 | 25.7 | 0.00 | 0.00 | 0.00 | 43 | 1010.8 |
| 20260903000903 | 35 | 65 | 9.7 | 20.9 | 0.00 | 0.00 | 0.00 | 43 | 1010.8 |
| 20260903000803 | 35 | 90 | 6.4 | 17.7 | 0.00 | 0.00 | 0.00 | 43 | 1010.9 |
| 20260903000703 | 35 | 84 | 9.7 | 17.7 | 0.00 | 0.00 | 0.00 | 43 | 1010.9 |
| 20260903000603 | 35 | 101 | 8.0 | 17.7 | 0.00 | 0.00 | 0.00 | 43 | 1010.9 |
| 20260903000502 | 36 | 113 | 6.4 | 16.1 | 0.00 | 0.00 | 0.00 | 43 | 1010.8 |
| 20260903000403 | 36 | 104 | 4.8 | 12.9 | 0.00 | 0.00 | 0.00 | 43 | 1010.8 |
| 20260903000303 | 36 | 109 | 4.8 | 16.1 | 0.00 | 0.00 | 0.00 | 43 | 1010.8 |
| 20260903000204 | 36 | 105 | 6.4 | 16.1 | 0.00 | 0.00 | 0.00 | 42 | 1010.9 |
| 20260903000003 | 36 | 94 | 4.8 | 17.7 | 0.00 | 0.00 | 0.00 | 42 | 1008.9 |
| 20260902235902 | 36 | 107 | 4.8 | 17.7 | 0.00 | 0.00 | 0.00 | 42 | 1010.8 |
| 20260902235803 | 36 | 130 | 6.4 | 17.7 | 0.00 | 0.00 | 0.00 | 42 | 1010.8 |
| 20260902235703 | 36 | 105 | 4.8 | 17.7 | 0.00 | 0.00 | 0.00 | 41 | 1010.9 |
| 20260902235603 | 36 | 111 | 8.0 | 17.7 | 0.00 | 0.00 | 0.00 | 41 | 1010.8 |
| 20260902235502 | 36 | 95 | 8.0 | 17.7 | 0.00 | 0.00 | 0.00 | 41 | 1010.9 |
| 20260902235305 | 36 | 109 | 9.7 | 17.7 | 0.00 | 0.00 | 0.00 | 41 | 1010.9 |
| 20260902235102 | 36 | 109 | 6.4 | 17.7 | 0.00 | 0.00 | 0.00 | 41 | 1010.9 |
| 20260902235003 | 36 | 121 | 6.4 | 16.1 | 0.00 | 0.00 | 0.00 | 40 | 1010.8 |
| 20260902234903 | 36 | 92 | 8.0 | 17.7 | 0.00 | 0.00 | 0.00 | 40 | 1010.8 |
| 20260902234803 | 36 | 98 | 8.0 | 17.7 | 0.00 | 0.00 | 0.00 | 40 | 1010.8 |
| 20260902234704 | 36 | 96 | 8.0 | 17.7 | 0.00 | 0.00 | 0.00 | 40 | 1010.6 |
| 20260902234504 | 36 | 85 | 6.4 | 17.7 | 0.00 | 0.00 | 0.00 | 40 | 1010.7 |
| 20260902234302 | 36 | 94 | 9.7 | 19.3 | 0.00 | 0.00 | 0.00 | 40 | 1010.7 |
| 20260902234103 | 37 | 105 | 8.0 | 19.3 | 0.00 | 0.00 | 0.00 | 40 | 1010.7 |
| 20260902234003 | 37 | 109 | 8.0 | 19.3 | 0.00 | 0.00 | 0.00 | 39 | 1010.8 |
| 20260902233903 | 37 | 111 | 8.0 | 19.3 | 0.00 | 0.00 | 0.00 | 39 | 1010.7 |
| 20260902233804 | 37 | 102 | 9.7 | 19.3 | 0.00 | 0.00 | 0.00 | 39 | 1010.7 |
| 20260902233704 | 37 | 82 | 9.7 | 19.3 | 0.00 | 0.00 | 0.00 | 39 | 1010.8 |
| 20260902233603 | 37 | 78 | 8.0 | 19.3 | 0.00 | 0.00 | 0.00 | 39 | 1010.8 |
| 20260902233402 | 37 | 86 | 6.4 | 14.5 | 0.00 | 0.00 | 0.00 | 39 | 1010.8 |
| 20260902233303 | 37 | 75 | 6.4 | 14.5 | 0.00 | 0.00 | 0.00 | 39 | 1010.8 |
| 20260902233203 | 37 | 77 | 6.4 | 14.5 | 0.00 | 0.00 | 0.00 | 39 | 1010.8 |
| 20260902233103 | 37 | 91 | 8.0 | 14.5 | 0.00 | 0.00 | 0.00 | 39 | 1010.9 |
| 20260902233003 | 37 | 97 | 6.4 | 14.5 | 0.00 | 0.00 | 0.00 | 39 | 1008.9 |
| 20260902232903 | 37 | 96 | 6.4 | 12.9 | 0.00 | 0.00 | 0.00 | 39 | 1010.9 |
| 20260902232803 | 37 | 108 | 6.4 | 11.3 | 0.00 | 0.00 | 0.00 | 39 | 1010.8 |
| 20260902232702 | 37 | 110 | 4.8 | 14.5 | 0.00 | 0.00 | 0.00 | 39 | 1010.8 |
| 20260902232603 | 37 | 87 | 3.2 | 14.5 | 0.00 | 0.00 | 0.00 | 39 | 1010.8 |
| 20260902232503 | 37 | 101 | 3.2 | 19.3 | 0.00 | 0.00 | 0.00 | 39 | 1010.9 |
| 20260902232403 | 37 | 104 | 3.2 | 19.3 | 0.00 | 0.00 | 0.00 | 39 | 1010.8 |
| 20260902232306 | 37 | 99 | 4.8 | 19.3 | 0.00 | 0.00 | 0.00 | 39 | 1010.9 |
| 20260902232203 | 37 | 94 | 4.8 | 19.3 | 0.00 | 0.00 | 0.00 | 39 | 1010.8 |
| 20260902232102 | 37 | 74 | 4.8 | 19.3 | 0.00 | 0.00 | 0.00 | 39 | 1010.8 |
| 20260902232003 | 37 | 82 | 8.0 | 19.3 | 0.00 | 0.00 | 0.00 | 38 | 1010.8 |
| 20260902231903 | 37 | 69 | 9.7 | 19.3 | 0.00 | 0.00 | 0.00 | 38 | 1010.8 |
| 20260902231802 | 37 | 111 | 11.3 | 19.3 | 0.00 | 0.00 | 0.00 | 38 | 1010.8 |
| 20260902231603 | 37 | 122 | 9.7 | 20.9 | 0.00 | 0.00 | 0.00 | 38 | 1010.8 |
| 20260902231505 | 37 | 107 | 6.4 | 20.9 | 0.00 | 0.00 | 0.00 | 38 | 1008.9 |
| 20260902231402 | 37 | 96 | 8.0 | 22.5 | 0.00 | 0.00 | 0.00 | 38 | 1010.9 |
| 20260902231302 | 37 | 117 | 8.0 | 22.5 | 0.00 | 0.00 | 0.00 | 38 | 1010.8 |
| 20260902231203 | 37 | 68 | 9.7 | 22.5 | 0.00 | 0.00 | 0.00 | 37 | 1010.8 |
| 20260902231103 | 37 | 58 | 9.7 | 22.5 | 0.00 | 0.00 | 0.00 | 37 | 1010.8 |
| 20260902231003 | 37 | 82 | 9.7 | 22.5 | 0.00 | 0.00 | 0.00 | 38 | 1010.9 |
| 20260902230903 | 37 | 87 | 11.3 | 22.5 | 0.00 | 0.00 | 0.00 | 37 | 1010.8 |
| 20260902230803 | 37 | 71 | 11.3 | 25.7 | 0.00 | 0.00 | 0.00 | 37 | 1010.8 |
| 20260902230703 | 37 | 71 | 12.9 | 25.7 | 0.00 | 0.00 | 0.00 | 37 | 1010.8 |
| 20260902230602 | 37 | 82 | 9.7 | 25.7 | 0.00 | 0.00 | 0.00 | 38 | 1010.9 |
| 20260902230503 | 37 | 69 | 9.7 | 25.7 | 0.00 | 0.00 | 0.00 | 38 | 1010.9 |
| 20260902230403 | 37 | 86 | 8.0 | 25.7 | 0.00 | 0.00 | 0.00 | 38 | 1010.9 |
| 20260902230303 | 37 | 89 | 8.0 | 25.7 | 0.00 | 0.00 | 0.00 | 38 | 1010.9 |
| 20260902230203 | 37 | 99 | 11.3 | 25.7 | 0.00 | 0.00 | 0.00 | 38 | 1010.8 |
| 20260902230006 | 37 | 105 | 11.3 | 25.7 | 0.00 | 0.00 | 0.00 | 37 | 1010.8 |
| 20260902225804 | 38 | 132 | 9.7 | 16.1 | 0.00 | 0.00 | 0.00 | 37 | 1010.9 |
| 20260902225703 | 38 | 123 | 6.4 | 16.1 | 0.00 | 0.00 | 0.00 | 38 | 1010.9 |
| 20260902225603 | 38 | 92 | 6.4 | 16.1 | 0.00 | 0.00 | 0.00 | 37 | 1010.9 |
| 20260902225503 | 37 | 71 | 4.8 | 16.1 | 0.00 | 0.00 | 0.00 | 37 | 1010.9 |
| 20260902225404 | 37 | 77 | 8.0 | 16.1 | 0.00 | 0.00 | 0.00 | 37 | 1010.9 |
| 20260902225305 | 37 | 81 | 8.0 | 16.1 | 0.00 | 0.00 | 0.00 | 38 | 1010.9 |
| 20260902225204 | 37 | 74 | 8.0 | 16.1 | 0.00 | 0.00 | 0.00 | 38 | 1010.9 |
| 20260902225104 | 37 | 77 | 4.8 | 16.1 | 0.00 | 0.00 | 0.00 | 38 | 1010.9 |
| 20260902225003 | 37 | 83 | 4.8 | 17.7 | 0.00 | 0.00 | 0.00 | 38 | 1010.9 |
| 20260902224902 | 37 | 113 | 4.8 | 17.7 | 0.00 | 0.00 | 0.00 | 38 | 1010.9 |
| 20260902224802 | 37 | 71 | 4.8 | 19.3 | 0.00 | 0.00 | 0.00 | 38 | 1011.0 |
| 20260902224603 | 37 | 76 | 8.0 | 19.3 | 0.00 | 0.00 | 0.00 | 37 | 1011.0 |
| 20260902224505 | 38 | 109 | 8.0 | 19.3 | 0.00 | 0.00 | 0.00 | 37 | 1009.0 |
| 20260902224503 | 38 | 109 | 8.0 | 19.3 | 0.00 | 0.00 | 0.00 | 37 | 1011.0 |
| 20260902224303 | 38 | 78 | 9.7 | 19.3 | 0.00 | 0.00 | 0.00 | 37 | 1011.0 |
| 20260902224204 | 38 | 111 | 9.7 | 19.3 | 0.00 | 0.00 | 0.00 | 37 | 1011.0 |
| 20260902224102 | 38 | 85 | 11.3 | 19.3 | 0.00 | 0.00 | 0.00 | 37 | 1010.9 |
| 20260902224002 | 38 | 96 | 12.9 | 19.3 | 0.00 | 0.00 | 0.00 | 37 | 1011.0 |
| 20260902223903 | 38 | 87 | 12.9 | 19.3 | 0.00 | 0.00 | 0.00 | 37 | 1010.9 |
| 20260902223803 | 38 | 98 | 9.7 | 19.3 | 0.00 | 0.00 | 0.00 | 37 | 1010.9 |
| 20260902223703 | 38 | 107 | 9.7 | 19.3 | 0.00 | 0.00 | 0.00 | 37 | 1010.9 |
| 20260902223603 | 38 | 96 | 9.7 | 19.3 | 0.00 | 0.00 | 0.00 | 36 | 1010.9 |
| 20260902223502 | 38 | 136 | 4.8 | 17.7 | 0.00 | 0.00 | 0.00 | 36 | 1010.9 |
| 20260902223403 | 38 | 55 | 4.8 | 17.7 | 0.00 | 0.00 | 0.00 | 36 | 1010.9 |
| 20260902223303 | 38 | 99 | 6.4 | 17.7 | 0.00 | 0.00 | 0.00 | 36 | 1010.9 |
| 20260902223203 | 38 | 77 | 8.0 | 17.7 | 0.00 | 0.00 | 0.00 | 37 | 1010.9 |
| 20260902223008 | 38 | 49 | 3.2 | 11.3 | 0.00 | 0.00 | 0.00 | 37 | 1009.0 |
| 20260902223003 | 38 | 49 | 4.8 | 11.3 | 0.00 | 0.00 | 0.00 | 37 | 1010.9 |
| 20260902222803 | 38 | 89 | 6.4 | 11.3 | 0.00 | 0.00 | 0.00 | 37 | 1010.9 |
| 20260902222703 | 38 | 55 | 6.4 | 11.3 | 0.00 | 0.00 | 0.00 | 37 | 1010.9 |
| 20260902222602 | 38 | 80 | 4.8 | 14.5 | 0.00 | 0.00 | 0.00 | 37 | 1010.9 |
| 20260902222503 | 38 | 55 | 4.8 | 14.5 | 0.00 | 0.00 | 0.00 | 37 | 1010.9 |
| 20260902222305 | 38 | 109 | 3.2 | 14.5 | 0.00 | 0.00 | 0.00 | 37 | 1010.9 |
| 20260902222203 | 38 | 76 | 4.8 | 14.5 | 0.00 | 0.00 | 0.00 | 37 | 1010.9 |
| 20260902222103 | 38 | 108 | 4.8 | 14.5 | 0.00 | 0.00 | 0.00 | 37 | 1010.9 |
| 20260902222003 | 38 | 136 | 4.8 | 14.5 | 0.00 | 0.00 | 0.00 | 37 | 1011.0 |
| 20260902221904 | 38 | 89 | 6.4 | 14.5 | 0.00 | 0.00 | 0.00 | 37 | 1010.9 |
| 20260902221703 | 38 | 117 | 6.4 | 14.5 | 0.00 | 0.00 | 0.00 | 36 | 1011.0 |
| 20260902221604 | 38 | 63 | 6.4 | 17.7 | 0.00 | 0.00 | 0.00 | 36 | 1011.0 |
| 20260902221504 | 38 | 54 | 4.8 | 17.7 | 0.00 | 0.00 | 0.00 | 36 | 1009.1 |
| 20260902221402 | 38 | 71 | 3.2 | 17.7 | 0.00 | 0.00 | 0.00 | 37 | 1011.0 |
| 20260902221303 | 38 | 67 | 4.8 | 19.3 | 0.00 | 0.00 | 0.00 | 37 | 1011.0 |
| 20260902221204 | 38 | 96 | 6.4 | 19.3 | 0.00 | 0.00 | 0.00 | 37 | 1011.0 |
| 20260902221103 | 38 | 113 | 8.0 | 19.3 | 0.00 | 0.00 | 0.00 | 37 | 1011.0 |
| 20260902221003 | 38 | 87 | 9.7 | 19.3 | 0.00 | 0.00 | 0.00 | 37 | 1011.0 |
| 20260902220903 | 38 | 87 | 9.7 | 19.3 | 0.00 | 0.00 | 0.00 | 37 | 1011.0 |
| 20260902220803 | 38 | 65 | 8.0 | 19.3 | 0.00 | 0.00 | 0.00 | 37 | 1011.1 |
| 20260902220703 | 38 | 78 | 6.4 | 19.3 | 0.00 | 0.00 | 0.00 | 37 | 1011.1 |
| 20260902220603 | 38 | 86 | 8.0 | 19.3 | 0.00 | 0.00 | 0.00 | 37 | 1011.0 |
| 20260902220504 | 38 | 69 | 9.7 | 19.3 | 0.00 | 0.00 | 0.00 | 37 | 1011.0 |
| 20260902220403 | 38 | 92 | 9.7 | 19.3 | 0.00 | 0.00 | 0.00 | 36 | 1011.0 |
| 20260902220304 | 38 | 68 | 9.7 | 19.3 | 0.00 | 0.00 | 0.00 | 36 | 1011.0 |
| 20260902220204 | 38 | 121 | 4.8 | 16.1 | 0.00 | 0.00 | 0.00 | 37 | 1011.1 |
| 20260902220002 | 38 | 81 | 3.2 | 16.1 | 0.00 | 0.00 | 0.00 | 37 | 1009.1 |
| 20260902215901 | 38 | 102 | 3.2 | 16.1 | 0.00 | 0.00 | 0.00 | 37 | 1011.1 |
| 20260902215703 | 38 | 72 | 4.8 | 16.1 | 0.00 | 0.00 | 0.00 | 37 | 1011.1 |
| 20260902215601 | 38 | 81 | 6.4 | 16.1 | 0.00 | 0.00 | 0.00 | 37 | 1011.1 |
| 20260902215501 | 38 | 78 | 8.0 | 16.1 | 0.00 | 0.00 | 0.00 | 37 | 1011.1 |
| 20260902215401 | 38 | 55 | 6.4 | 14.5 | 0.00 | 0.00 | 0.00 | 36 | 1011.1 |
| 20260902215306 | 38 | 110 | 3.2 | 14.5 | 0.00 | 0.00 | 0.00 | 37 | 1011.1 |
| 20260902215103 | 38 | 153 | 4.8 | 16.1 | 0.00 | 0.00 | 0.00 | 36 | 1011.2 |
| 20260902215002 | 38 | 117 | 8.0 | 16.1 | 0.00 | 0.00 | 0.00 | 36 | 1011.2 |
| 20260902214902 | 38 | 105 | 8.0 | 16.1 | 0.00 | 0.00 | 0.00 | 36 | 1011.2 |
| 20260902214802 | 38 | 97 | 6.4 | 16.1 | 0.00 | 0.00 | 0.00 | 37 | 1011.2 |
| 20260902214703 | 38 | 101 | 6.4 | 16.1 | 0.00 | 0.00 | 0.00 | 36 | 1011.3 |
| 20260902214502 | 38 | 86 | 6.4 | 17.7 | 0.00 | 0.00 | 0.00 | 36 | 1011.2 |
| 20260902214402 | 38 | 80 | 6.4 | 17.7 | 0.00 | 0.00 | 0.00 | 37 | 1011.3 |
| 20260902214303 | 38 | 109 | 4.8 | 19.3 | 0.00 | 0.00 | 0.00 | 37 | 1011.3 |
| 20260902214202 | 38 | 94 | 6.4 | 19.3 | 0.00 | 0.00 | 0.00 | 36 | 1011.3 |
| 20260902214102 | 38 | 97 | 8.0 | 22.5 | 0.00 | 0.00 | 0.00 | 36 | 1011.3 |
| 20260902214002 | 38 | 110 | 9.7 | 22.5 | 0.00 | 0.00 | 0.00 | 37 | 1011.3 |
| 20260902213902 | 38 | 106 | 8.0 | 22.5 | 0.00 | 0.00 | 0.00 | 37 | 1011.3 |
| 20260902213802 | 38 | 92 | 8.0 | 22.5 | 0.00 | 0.00 | 0.00 | 37 | 1011.3 |
| 20260902213703 | 38 | 96 | 6.4 | 22.5 | 0.00 | 0.00 | 0.00 | 37 | 1011.3 |
| 20260902213501 | 38 | 74 | 11.3 | 22.5 | 0.00 | 0.00 | 0.00 | 37 | 1011.4 |
| 20260902213401 | 38 | 105 | 11.3 | 22.5 | 0.00 | 0.00 | 0.00 | 38 | 1011.3 |
| 20260902213302 | 38 | 110 | 9.7 | 19.3 | 0.00 | 0.00 | 0.00 | 38 | 1011.3 |
| 20260902213202 | 38 | 48 | 8.0 | 17.7 | 0.00 | 0.00 | 0.00 | 38 | 1011.4 |
| 20260902213102 | 38 | 57 | 8.0 | 17.7 | 0.00 | 0.00 | 0.00 | 38 | 1011.3 |
| 20260902213003 | 38 | 97 | 8.0 | 17.7 | 0.00 | 0.00 | 0.00 | 38 | 1011.3 |
| 20260902213001 | 38 | 97 | 8.0 | 17.7 | 0.00 | 0.00 | 0.00 | 38 | 1009.4 |
| 20260902212701 | 38 | 143 | 9.7 | 17.7 | 0.00 | 0.00 | 0.00 | 37 | 1011.4 |
| 20260902212603 | 38 | 141 | 11.3 | 17.7 | 0.00 | 0.00 | 0.00 | 37 | 1011.4 |
| 20260902212501 | 38 | 108 | 11.3 | 17.7 | 0.00 | 0.00 | 0.00 | 37 | 1011.5 |
| 20260902212402 | 38 | 138 | 8.0 | 17.7 | 0.00 | 0.00 | 0.00 | 37 | 1011.5 |
| 20260902212305 | 38 | 125 | 8.0 | 17.7 | 0.00 | 0.00 | 0.00 | 37 | 1011.5 |
| 20260902212202 | 38 | 88 | 6.4 | 17.7 | 0.00 | 0.00 | 0.00 | 37 | 1011.5 |
| 20260902212102 | 38 | 95 | 4.8 | 17.7 | 0.00 | 0.00 | 0.00 | 36 | 1011.5 |
| 20260902212001 | 38 | 111 | 4.8 | 17.7 | 0.00 | 0.00 | 0.00 | 36 | 1011.6 |
| 20260902211903 | 38 | 102 | 6.4 | 17.7 | 0.00 | 0.00 | 0.00 | 37 | 1011.6 |
| 20260902211802 | 38 | 119 | 8.0 | 17.7 | 0.00 | 0.00 | 0.00 | 37 | 1011.6 |
| 20260902211703 | 38 | 102 | 6.4 | 17.7 | 0.00 | 0.00 | 0.00 | 38 | 1011.6 |
| 20260902211602 | 38 | 65 | 6.4 | 17.7 | 0.00 | 0.00 | 0.00 | 38 | 1011.6 |
| 20260902211502 | 37 | 101 | 6.4 | 17.7 | 0.00 | 0.00 | 0.00 | 38 | 1009.7 |
| 20260902211402 | 37 | 105 | 6.4 | 17.7 | 0.00 | 0.00 | 0.00 | 38 | 1011.6 |
| 20260902211202 | 37 | 86 | 11.3 | 17.7 | 0.00 | 0.00 | 0.00 | 38 | 1011.6 |
| 20260902211102 | 37 | 75 | 9.7 | 17.7 | 0.00 | 0.00 | 0.00 | 38 | 1011.6 |
| 20260902211003 | 37 | 109 | 6.4 | 16.1 | 0.00 | 0.00 | 0.00 | 38 | 1011.6 |
| 20260902210902 | 37 | 84 | 3.2 | 8.0 | 0.00 | 0.00 | 0.00 | 38 | 1011.7 |
| 20260902210601 | 37 | 65 | 1.6 | 14.5 | 0.00 | 0.00 | 0.00 | 37 | 1011.7 |
| 20260902210503 | 38 | 105 | 1.6 | 14.5 | 0.00 | 0.00 | 0.00 | 37 | 1011.7 |
| 20260902210402 | 38 | 105 | 3.2 | 14.5 | 0.00 | 0.00 | 0.00 | 37 | 1011.7 |
| 20260902210302 | 38 | 106 | 4.8 | 14.5 | 0.00 | 0.00 | 0.00 | 37 | 1011.7 |
| 20260902210202 | 38 | 87 | 4.8 | 14.5 | 0.00 | 0.00 | 0.00 | 37 | 1011.7 |
| 20260902210002 | 38 | 107 | 6.4 | 14.5 | 0.00 | 0.00 | 0.00 | 37 | 1011.7 |
| 20260902205901 | 38 | 66 | 6.4 | 14.5 | 0.00 | 0.00 | 0.00 | 37 | 1011.8 |
| 20260902205802 | 38 | 91 | 6.4 | 14.5 | 0.00 | 0.00 | 0.00 | 38 | 1011.8 |
| 20260902205701 | 38 | 79 | 4.8 | 14.5 | 0.00 | 0.00 | 0.00 | 38 | 1011.8 |
| 20260902205502 | 38 | 30 | 0.0 | 19.3 | 0.00 | 0.00 | 0.00 | 36 | 1011.7 |
| 20260902205402 | 38 | 29 | 1.6 | 19.3 | 0.00 | 0.00 | 0.00 | 37 | 1011.8 |
| 20260902205306 | 38 | 135 | 3.2 | 19.3 | 0.00 | 0.00 | 0.00 | 37 | 1011.8 |
| 20260902205103 | 38 | 101 | 3.2 | 19.3 | 0.00 | 0.00 | 0.00 | 37 | 1011.9 |
| 20260902205003 | 38 | 97 | 4.8 | 19.3 | 0.00 | 0.00 | 0.00 | 38 | 1011.9 |
| 20260902204802 | 38 | 68 | 8.0 | 19.3 | 0.00 | 0.00 | 0.00 | 38 | 1012.0 |
| 20260902204703 | 38 | 98 | 4.8 | 19.3 | 0.00 | 0.00 | 0.00 | 38 | 1012.0 |
| 20260902204602 | 38 | 76 | 3.2 | 19.3 | 0.00 | 0.00 | 0.00 | 40 | 1012.0 |
| 20260902204504 | 37 | 84 | 4.8 | 19.3 | 0.00 | 0.00 | 0.00 | 39 | 1012.0 |
| 20260902204501 | 37 | 84 | 3.2 | 19.3 | 0.00 | 0.00 | 0.00 | 39 | 1010.1 |
| 20260902204402 | 37 | 71 | 6.4 | 19.3 | 0.00 | 0.00 | 0.00 | 39 | 1012.0 |
| 20260902204202 | 37 | 72 | 8.0 | 25.7 | 0.00 | 0.00 | 0.00 | 39 | 1012.0 |
| 20260902203901 | 37 | 101 | 8.0 | 25.7 | 0.00 | 0.00 | 0.00 | 40 | 1012.1 |
| 20260902203702 | 37 | 85 | 9.7 | 25.7 | 0.00 | 0.00 | 0.00 | 41 | 1012.1 |
| 20260902203602 | 37 | 80 | 8.0 | 25.7 | 0.00 | 0.00 | 0.00 | 41 | 1012.1 |
| 20260902203403 | 36 | 76 | 4.8 | 25.7 | 0.00 | 0.00 | 0.00 | 41 | 1012.0 |
| 20260902203302 | 36 | 57 | 1.6 | 8.0 | 0.00 | 0.00 | 0.00 | 41 | 1012.1 |
| 20260902203203 | 36 | 75 | 3.2 | 9.7 | 0.00 | 0.00 | 0.00 | 41 | 1012.0 |
| 20260902203103 | 36 | 89 | 1.6 | 9.7 | 0.00 | 0.00 | 0.00 | 42 | 1012.1 |
| 20260902203003 | 36 | 78 | 0.0 | 9.7 | 0.00 | 0.00 | 0.00 | 42 | 1012.2 |
| 20260902202903 | 36 | 105 | 0.0 | 9.7 | 0.00 | 0.00 | 0.00 | 42 | 1012.2 |
| 20260902202803 | 36 | 105 | 1.6 | 11.3 | 0.00 | 0.00 | 0.00 | 41 | 1012.3 |
| 20260902202702 | 36 | 105 | 3.2 | 11.3 | 0.00 | 0.00 | 0.00 | 41 | 1012.3 |
| 20260902202602 | 36 | 104 | 4.8 | 16.1 | 0.00 | 0.00 | 0.00 | 41 | 1012.3 |
| 20260902202502 | 36 | 68 | 4.8 | 16.1 | 0.00 | 0.00 | 0.00 | 41 | 1012.3 |
| 20260902202402 | 36 | 97 | 4.8 | 24.1 | 0.00 | 0.00 | 0.00 | 41 | 1012.3 |
| 20260902202102 | 37 | 96 | 4.8 | 24.1 | 0.00 | 0.00 | 0.00 | 40 | 1012.4 |
| 20260902202001 | 37 | 80 | 6.4 | 24.1 | 0.00 | 0.00 | 0.00 | 40 | 1012.4 |
| 20260902201903 | 37 | 62 | 8.0 | 24.1 | 0.00 | 0.00 | 0.00 | 39 | 1012.4 |
| 20260902201602 | 37 | 71 | 9.7 | 24.1 | 0.00 | 0.00 | 0.00 | 38 | 1012.4 |
| 20260902201502 | 37 | 59 | 8.0 | 24.1 | 0.00 | 0.00 | 0.00 | 38 | 1010.5 |
| 20260902201402 | 37 | 33 | 6.4 | 24.1 | 0.00 | 0.00 | 0.00 | 39 | 1012.4 |
| 20260902201302 | 37 | 79 | 8.0 | 16.1 | 0.00 | 0.00 | 0.00 | 39 | 1012.4 |
| 20260902201203 | 37 | 70 | 8.0 | 16.1 | 0.00 | 0.00 | 0.00 | 40 | 1012.3 |
| 20260902201104 | 37 | 71 | 4.8 | 16.1 | 0.00 | 0.00 | 0.00 | 39 | 1012.4 |
| 20260902200903 | 37 | 81 | 6.4 | 16.1 | 0.00 | 0.00 | 0.00 | 40 | 1012.4 |
| 20260902200802 | 37 | 54 | 8.0 | 16.1 | 0.00 | 0.00 | 0.00 | 39 | 1012.5 |
| 20260902200701 | 37 | 109 | 8.0 | 16.1 | 0.00 | 0.00 | 0.00 | 39 | 1012.5 |
| 20260902200602 | 37 | 123 | 8.0 | 16.1 | 0.00 | 0.00 | 0.00 | 39 | 1012.5 |
| 20260902200503 | 37 | 113 | 4.8 | 16.1 | 0.00 | 0.00 | 0.00 | 41 | 1012.5 |
| 20260902200403 | 37 | 79 | 4.8 | 16.1 | 0.00 | 0.00 | 0.00 | 41 | 1012.5 |
| 20260902200303 | 37 | 134 | 6.4 | 16.1 | 0.00 | 0.00 | 0.00 | 39 | 1012.5 |
| 20260902200202 | 37 | 138 | 9.7 | 16.1 | 0.00 | 0.00 | 0.00 | 39 | 1012.6 |
| 20260902200004 | 37 | 88 | 6.4 | 16.1 | 0.00 | 0.00 | 0.00 | 39 | 1010.7 |
| 20260902200002 | 37 | 88 | 8.0 | 16.1 | 0.00 | 0.00 | 0.00 | 39 | 1012.6 |
| 20260902195902 | 37 | 92 | 8.0 | 16.1 | 0.00 | 0.00 | 0.00 | 39 | 1012.5 |
| 20260902195803 | 37 | 114 | 9.7 | 16.1 | 0.00 | 0.00 | 0.00 | 40 | 1012.6 |
| 20260902195703 | 37 | 115 | 11.3 | 16.1 | 0.00 | 0.00 | 0.00 | 40 | 1012.6 |
| 20260902195502 | 37 | 118 | 8.0 | 14.5 | 0.00 | 0.00 | 0.00 | 40 | 1012.6 |
| 20260902195403 | 37 | 111 | 4.8 | 16.1 | 0.00 | 0.00 | 0.00 | 40 | 1012.6 |
| 20260902195306 | 37 | 102 | 3.2 | 17.7 | 0.00 | 0.00 | 0.00 | 40 | 1012.6 |
| 20260902195203 | 37 | 76 | 1.6 | 17.7 | 0.00 | 0.00 | 0.00 | 40 | 1012.6 |
| 20260902194903 | 36 | 54 | 3.2 | 17.7 | 0.00 | 0.00 | 0.00 | 42 | 1012.7 |
| 20260902194802 | 36 | 83 | 4.8 | 17.7 | 0.00 | 0.00 | 0.00 | 42 | 1012.7 |
| 20260902194701 | 36 | 107 | 8.0 | 17.7 | 0.00 | 0.00 | 0.00 | 42 | 1012.8 |
| 20260902194601 | 36 | 107 | 9.7 | 17.7 | 0.00 | 0.00 | 0.00 | 42 | 1012.8 |
| 20260902194502 | 36 | 115 | 9.7 | 17.7 | 0.00 | 0.00 | 0.00 | 42 | 1010.9 |
| 20260902194402 | 36 | 101 | 6.4 | 17.7 | 0.00 | 0.00 | 0.00 | 43 | 1012.7 |
| 20260902194301 | 36 | 67 | 4.8 | 17.7 | 0.00 | 0.00 | 0.00 | 43 | 1012.8 |
| 20260902194102 | 36 | 5 | 6.4 | 16.1 | 0.00 | 0.00 | 0.00 | 42 | 1012.8 |
| 20260902194003 | 36 | 355 | 6.4 | 16.1 | 0.00 | 0.00 | 0.00 | 42 | 1012.7 |
| 20260902193902 | 36 | 53 | 6.4 | 16.1 | 0.00 | 0.00 | 0.00 | 42 | 1012.8 |
| 20260902193804 | 36 | 346 | 4.8 | 16.1 | 0.00 | 0.00 | 0.00 | 42 | 1012.8 |
| 20260902193702 | 36 | 23 | 6.4 | 16.1 | 0.00 | 0.00 | 0.00 | 41 | 1012.9 |
| 20260902193602 | 36 | 42 | 6.4 | 16.1 | 0.00 | 0.00 | 0.00 | 41 | 1012.8 |
| 20260902193503 | 36 | 42 | 8.0 | 17.7 | 0.00 | 0.00 | 0.00 | 41 | 1012.8 |
| 20260902193402 | 36 | 55 | 8.0 | 17.7 | 0.00 | 0.00 | 0.00 | 41 | 1012.9 |
| 20260902193302 | 37 | 77 | 9.7 | 17.7 | 0.00 | 0.00 | 0.00 | 40 | 1013.0 |
| 20260902193202 | 37 | 63 | 9.7 | 17.7 | 0.00 | 0.00 | 0.00 | 41 | 1013.0 |
| 20260902193101 | 37 | 92 | 9.7 | 17.7 | 0.00 | 0.00 | 0.00 | 41 | 1013.0 |
| 20260902193003 | 37 | 106 | 9.7 | 17.7 | 0.00 | 0.00 | 0.00 | 40 | 1013.0 |
| 20260902192902 | 37 | 74 | 9.7 | 17.7 | 0.00 | 0.00 | 0.00 | 41 | 1013.0 |
| 20260902192803 | 37 | 79 | 9.7 | 17.7 | 0.00 | 0.00 | 0.00 | 41 | 1012.9 |
| 20260902192702 | 37 | 50 | 9.7 | 17.7 | 0.00 | 0.00 | 0.00 | 40 | 1013.0 |
| 20260902192603 | 37 | 32 | 6.4 | 17.7 | 0.00 | 0.00 | 0.00 | 41 | 1013.0 |
| 20260902192402 | 37 | 95 | 8.0 | 17.7 | 0.00 | 0.00 | 0.00 | 42 | 1013.0 |
| 20260902192306 | 36 | 103 | 9.7 | 17.7 | 0.00 | 0.00 | 0.00 | 42 | 1013.0 |
| 20260902192203 | 36 | 77 | 11.3 | 17.7 | 0.00 | 0.00 | 0.00 | 42 | 1013.0 |
| 20260902192103 | 36 | 34 | 9.7 | 17.7 | 0.00 | 0.00 | 0.00 | 40 | 1013.0 |
| 20260902192004 | 36 | 38 | 6.4 | 17.7 | 0.00 | 0.00 | 0.00 | 42 | 1013.0 |
| 20260902191903 | 36 | 75 | 3.2 | 16.1 | 0.00 | 0.00 | 0.00 | 43 | 1013.1 |
| 20260902191602 | 36 | 98 | 6.4 | 16.1 | 0.00 | 0.00 | 0.00 | 43 | 1013.2 |
| 20260902191502 | 36 | 122 | 3.2 | 16.1 | 0.00 | 0.00 | 0.00 | 43 | 1013.2 |
| 20260902191402 | 36 | 94 | 3.2 | 16.1 | 0.00 | 0.00 | 0.00 | 43 | 1013.2 |
| 20260902191302 | 36 | 41 | 6.4 | 16.1 | 0.00 | 0.00 | 0.00 | 43 | 1013.2 |
| 20260902191101 | 36 | 62 | 6.4 | 16.1 | 0.00 | 0.00 | 0.00 | 44 | 1013.2 |
| 20260902191002 | 36 | 78 | 3.2 | 16.1 | 0.00 | 0.00 | 0.00 | 42 | 1013.2 |
| 20260902190903 | 36 | 60 | 1.6 | 16.1 | 0.00 | 0.00 | 0.00 | 42 | 1013.2 |
| 20260902190802 | 36 | 103 | 1.6 | 16.1 | 0.00 | 0.00 | 0.00 | 42 | 1013.3 |
| 20260902190602 | 36 | 345 | 4.8 | 16.1 | 0.00 | 0.00 | 0.00 | 42 | 1013.4 |
| 20260902190503 | 36 | 11 | 8.0 | 16.1 | 0.00 | 0.00 | 0.00 | 41 | 1013.4 |
| 20260902190403 | 36 | 65 | 8.0 | 16.1 | 0.00 | 0.00 | 0.00 | 42 | 1013.4 |
| 20260902190301 | 37 | 57 | 4.8 | 14.5 | 0.00 | 0.00 | 0.00 | 42 | 1013.4 |
| 20260902190202 | 37 | 76 | 4.8 | 19.3 | 0.00 | 0.00 | 0.00 | 42 | 1013.4 |
| 20260902190003 | 37 | 103 | 3.2 | 19.3 | 0.00 | 0.00 | 0.00 | 42 | 1011.5 |
| 20260902185902 | 37 | 96 | 3.2 | 19.3 | 0.00 | 0.00 | 0.00 | 43 | 1013.4 |
| 20260902185802 | 37 | 59 | 3.2 | 19.3 | 0.00 | 0.00 | 0.00 | 42 | 1013.4 |
| 20260902185502 | 37 | 71 | 6.4 | 19.3 | 0.00 | 0.00 | 0.00 | 42 | 1013.5 |
| 20260902185403 | 36 | 73 | 6.4 | 19.3 | 0.00 | 0.00 | 0.00 | 42 | 1013.5 |
| 20260902185306 | 36 | 84 | 6.4 | 19.3 | 0.00 | 0.00 | 0.00 | 43 | 1013.5 |
| 20260902185002 | 36 | 77 | 9.7 | 20.9 | 0.00 | 0.00 | 0.00 | 43 | 1013.6 |
| 20260902184902 | 36 | 102 | 8.0 | 20.9 | 0.00 | 0.00 | 0.00 | 43 | 1013.6 |
| 20260902184801 | 36 | 101 | 6.4 | 20.9 | 0.00 | 0.00 | 0.00 | 43 | 1013.6 |
| 20260902184702 | 36 | 89 | 9.7 | 20.9 | 0.00 | 0.00 | 0.00 | 44 | 1013.6 |
| 20260902184601 | 36 | 70 | 11.3 | 20.9 | 0.00 | 0.00 | 0.00 | 43 | 1013.6 |
| 20260902184502 | 36 | 73 | 9.7 | 20.9 | 0.00 | 0.00 | 0.00 | 43 | 1011.7 |
| 20260902184402 | 36 | 67 | 9.7 | 20.9 | 0.00 | 0.00 | 0.00 | 44 | 1013.7 |
| 20260902184303 | 36 | 82 | 12.9 | 20.9 | 0.00 | 0.00 | 0.00 | 44 | 1013.8 |
| 20260902184202 | 36 | 130 | 12.9 | 20.9 | 0.00 | 0.00 | 0.00 | 44 | 1013.5 |
| 20260902184101 | 36 | 63 | 8.0 | 17.7 | 0.00 | 0.00 | 0.00 | 44 | 1013.7 |
| 20260902184001 | 36 | 77 | 4.8 | 14.5 | 0.00 | 0.00 | 0.00 | 45 | 1013.7 |
| 20260902183901 | 36 | 49 | 4.8 | 14.5 | 0.00 | 0.00 | 0.00 | 44 | 1013.7 |
| 20260902183802 | 36 | 11 | 3.2 | 14.5 | 0.00 | 0.00 | 0.00 | 44 | 1013.7 |
| 20260902183701 | 36 | 333 | 4.8 | 14.5 | 0.00 | 0.00 | 0.00 | 44 | 1013.8 |
| 20260902183603 | 36 | 26 | 4.8 | 14.5 | 0.00 | 0.00 | 0.00 | 44 | 1013.8 |
| 20260902183403 | 36 | 67 | 4.8 | 17.7 | 0.00 | 0.00 | 0.00 | 44 | 1013.8 |
| 20260902183303 | 35 | 64 | 3.2 | 17.7 | 0.00 | 0.00 | 0.00 | 45 | 1013.8 |
| 20260902183203 | 36 | 61 | 1.6 | 17.7 | 0.00 | 0.00 | 0.00 | 45 | 1013.9 |
| 20260902183101 | 36 | 74 | 4.8 | 17.7 | 0.00 | 0.00 | 0.00 | 45 | 1013.9 |
| 20260902183001 | 36 | 30 | 4.8 | 17.7 | 0.00 | 0.00 | 0.00 | 43 | 1012.0 |
| 20260902182802 | 36 | 53 | 9.7 | 17.7 | 0.00 | 0.00 | 0.00 | 43 | 1013.9 |
| 20260902182603 | 36 | 42 | 8.0 | 17.7 | 0.00 | 0.00 | 0.00 | 43 | 1014.0 |
| 20260902182502 | 36 | 66 | 8.0 | 17.7 | 0.00 | 0.00 | 0.00 | 43 | 1014.1 |
| 20260902182402 | 36 | 57 | 6.4 | 17.7 | 0.00 | 0.00 | 0.00 | 43 | 1014.0 |
| 20260902182305 | 36 | 103 | 6.4 | 17.7 | 0.00 | 0.00 | 0.00 | 44 | 1014.1 |
| 20260902182202 | 36 | 63 | 6.4 | 17.7 | 0.00 | 0.00 | 0.00 | 44 | 1014.1 |
| 20260902182103 | 36 | 117 | 6.4 | 17.7 | 0.00 | 0.00 | 0.00 | 45 | 1014.1 |
| 20260902181901 | 36 | 149 | 3.2 | 16.1 | 0.00 | 0.00 | 0.00 | 44 | 1014.2 |
| 20260902181803 | 36 | 83 | 3.2 | 16.1 | 0.00 | 0.00 | 0.00 | 44 | 1014.2 |
| 20260902181702 | 36 | 53 | 1.6 | 16.1 | 0.00 | 0.00 | 0.00 | 44 | 1014.2 |
| 20260902181603 | 36 | 29 | 1.6 | 16.1 | 0.00 | 0.00 | 0.00 | 44 | 1014.2 |
| 20260902181503 | 36 | 101 | 1.6 | 16.1 | 0.00 | 0.00 | 0.00 | 44 | 1014.3 |
| 20260902181302 | 36 | 74 | 8.0 | 16.1 | 0.00 | 0.00 | 0.00 | 44 | 1014.3 |
| 20260902181203 | 36 | 69 | 8.0 | 16.1 | 0.00 | 0.00 | 0.00 | 44 | 1014.3 |
| 20260902181102 | 36 | 81 | 8.0 | 16.1 | 0.00 | 0.00 | 0.00 | 44 | 1014.3 |
| 20260902181003 | 36 | 46 | 6.4 | 16.1 | 0.00 | 0.00 | 0.00 | 46 | 1014.4 |
| 20260902180903 | 36 | 66 | 6.4 | 16.1 | 0.00 | 0.00 | 0.00 | 46 | 1014.4 |
| 20260902180803 | 35 | 73 | 6.4 | 17.7 | 0.00 | 0.00 | 0.00 | 47 | 1014.4 |
| 20260902180702 | 35 | 52 | 8.0 | 17.7 | 0.00 | 0.00 | 0.00 | 47 | 1014.4 |
| 20260902180602 | 35 | 70 | 6.4 | 17.7 | 0.00 | 0.00 | 0.00 | 47 | 1014.5 |
| 20260902180503 | 35 | 120 | 3.2 | 17.7 | 0.00 | 0.00 | 0.00 | 48 | 1014.4 |
| 20260902180402 | 35 | 91 | 1.6 | 17.7 | 0.00 | 0.00 | 0.00 | 48 | 1014.5 |
| 20260902180302 | 35 | 107 | 1.6 | 17.7 | 0.00 | 0.00 | 0.00 | 48 | 1014.5 |
| 20260902180204 | 35 | 111 | 6.4 | 17.7 | 0.00 | 0.00 | 0.00 | 48 | 1014.5 |
| 20260902180006 | 35 | 132 | 12.9 | 17.7 | 0.00 | 0.00 | 0.00 | 46 | 1014.6 |
| 20260902175902 | 35 | 126 | 8.0 | 17.7 | 0.00 | 0.00 | 0.00 | 46 | 1014.6 |
| 20260902175802 | 35 | 105 | 4.8 | 14.5 | 0.00 | 0.00 | 0.00 | 46 | 1014.6 |
| 20260902175702 | 35 | 128 | 3.2 | 14.5 | 0.00 | 0.00 | 0.00 | 46 | 1014.6 |
| 20260902175601 | 35 | 123 | 6.4 | 14.5 | 0.00 | 0.00 | 0.00 | 46 | 1014.7 |
| 20260902175501 | 35 | 113 | 6.4 | 14.5 | 0.00 | 0.00 | 0.00 | 46 | 1014.7 |
| 20260902175404 | 35 | 134 | 8.0 | 14.5 | 0.00 | 0.00 | 0.00 | 46 | 1014.7 |
| 20260902175307 | 35 | 130 | 6.4 | 14.5 | 0.00 | 0.00 | 0.00 | 46 | 1014.7 |
| 20260902175202 | 35 | 119 | 6.4 | 14.5 | 0.00 | 0.00 | 0.00 | 46 | 1014.7 |
| 20260902175103 | 35 | 111 | 6.4 | 14.5 | 0.00 | 0.00 | 0.00 | 46 | 1014.7 |
| 20260902174902 | 35 | 88 | 1.6 | 9.7 | 0.00 | 0.00 | 0.00 | 46 | 1014.7 |
| 20260902174802 | 35 | 105 | 0.0 | 9.7 | 0.00 | 0.00 | 0.00 | 49 | 1014.7 |
| 20260902174702 | 35 | 82 | 0.0 | 14.5 | 0.00 | 0.00 | 0.00 | 49 | 1014.8 |
| 20260902174602 | 35 | 82 | 0.0 | 17.7 | 0.00 | 0.00 | 0.00 | 47 | 1014.8 |
| 20260902174503 | 35 | 82 | 0.0 | 17.7 | 0.00 | 0.00 | 0.00 | 47 | 1012.9 |
| 20260902174402 | 35 | 82 | 1.6 | 17.7 | 0.00 | 0.00 | 0.00 | 47 | 1014.8 |
| 20260902174303 | 35 | 73 | 3.2 | 17.7 | 0.00 | 0.00 | 0.00 | 47 | 1014.8 |
| 20260902174101 | 35 | 100 | 6.4 | 17.7 | 0.00 | 0.00 | 0.00 | 48 | 1014.9 |
| 20260902174002 | 35 | 121 | 9.7 | 17.7 | 0.00 | 0.00 | 0.00 | 46 | 1014.9 |
| 20260902173903 | 35 | 118 | 9.7 | 17.7 | 0.00 | 0.00 | 0.00 | 46 | 1014.9 |
| 20260902173802 | 35 | 137 | 11.3 | 17.7 | 0.00 | 0.00 | 0.00 | 46 | 1014.9 |
| 20260902173701 | 35 | 110 | 9.7 | 17.7 | 0.00 | 0.00 | 0.00 | 46 | 1014.9 |
| 20260902173603 | 35 | 115 | 6.4 | 17.7 | 0.00 | 0.00 | 0.00 | 48 | 1014.9 |
| 20260902173502 | 35 | 131 | 3.2 | 9.7 | 0.00 | 0.00 | 0.00 | 48 | 1014.9 |
| 20260902173402 | 35 | 92 | 4.8 | 12.9 | 0.00 | 0.00 | 0.00 | 49 | 1015.0 |
| 20260902173301 | 35 | 85 | 4.8 | 12.9 | 0.00 | 0.00 | 0.00 | 48 | 1015.0 |
| 20260902173202 | 35 | 78 | 3.2 | 12.9 | 0.00 | 0.00 | 0.00 | 49 | 1015.0 |
| 20260902173102 | 35 | 66 | 1.6 | 12.9 | 0.00 | 0.00 | 0.00 | 47 | 1015.0 |
| 20260902173001 | 35 | 140 | 0.0 | 14.5 | 0.00 | 0.00 | 0.00 | 46 | 1015.0 |
| 20260902172901 | 35 | 216 | 1.6 | 14.5 | 0.00 | 0.00 | 0.00 | 46 | 1015.1 |
| 20260902172802 | 35 | 67 | 1.6 | 14.5 | 0.00 | 0.00 | 0.00 | 46 | 1015.1 |
| 20260902172702 | 35 | 68 | 4.8 | 14.5 | 0.00 | 0.00 | 0.00 | 46 | 1015.1 |
| 20260902172602 | 35 | 68 | 4.8 | 14.5 | 0.00 | 0.00 | 0.00 | 47 | 1015.2 |
| 20260902172502 | 35 | 96 | 4.8 | 14.5 | 0.00 | 0.00 | 0.00 | 47 | 1015.2 |
| 20260902172402 | 35 | 88 | 6.4 | 17.7 | 0.00 | 0.00 | 0.00 | 48 | 1015.2 |
| 20260902172307 | 35 | 91 | 6.4 | 17.7 | 0.00 | 0.00 | 0.00 | 48 | 1015.2 |
| 20260902172203 | 35 | 108 | 8.0 | 17.7 | 0.00 | 0.00 | 0.00 | 48 | 1015.2 |
| 20260902172102 | 35 | 63 | 4.8 | 17.7 | 0.00 | 0.00 | 0.00 | 48 | 1015.3 |
| 20260902172003 | 35 | 92 | 3.2 | 17.7 | 0.00 | 0.00 | 0.00 | 49 | 1015.3 |
| 20260902171903 | 34 | 98 | 1.6 | 17.7 | 0.00 | 0.00 | 0.00 | 48 | 1015.3 |
| 20260902171702 | 34 | 98 | 6.4 | 14.5 | 0.00 | 0.00 | 0.00 | 49 | 1015.3 |
| 20260902171602 | 34 | 67 | 4.8 | 14.5 | 0.00 | 0.00 | 0.00 | 49 | 1015.3 |
| 20260902171502 | 34 | 55 | 1.6 | 14.5 | 0.00 | 0.00 | 0.00 | 49 | 1013.3 |
| 20260902171402 | 34 | 177 | 4.8 | 17.7 | 0.00 | 0.00 | 0.00 | 47 | 1015.3 |
| 20260902171303 | 34 | 172 | 6.4 | 17.7 | 0.00 | 0.00 | 0.00 | 47 | 1015.3 |
| 20260902171202 | 34 | 144 | 6.4 | 17.7 | 0.00 | 0.00 | 0.00 | 48 | 1015.4 |
| 20260902171102 | 34 | 126 | 8.0 | 17.7 | 0.00 | 0.00 | 0.00 | 49 | 1015.4 |
| 20260902171002 | 34 | 113 | 8.0 | 17.7 | 0.00 | 0.00 | 0.00 | 49 | 1015.3 |
| 20260902170903 | 34 | 116 | 6.4 | 17.7 | 0.00 | 0.00 | 0.00 | 49 | 1015.4 |
| 20260902170802 | 34 | 103 | 8.0 | 17.7 | 0.00 | 0.00 | 0.00 | 49 | 1015.4 |
| 20260902170703 | 34 | 76 | 9.7 | 17.7 | 0.00 | 0.00 | 0.00 | 49 | 1015.5 |
| 20260902170602 | 34 | 111 | 8.0 | 17.7 | 0.00 | 0.00 | 0.00 | 49 | 1015.4 |
| 20260902170502 | 34 | 154 | 6.4 | 12.9 | 0.00 | 0.00 | 0.00 | 48 | 1015.5 |
| 20260902170402 | 34 | 152 | 4.8 | 12.9 | 0.00 | 0.00 | 0.00 | 48 | 1015.5 |
| 20260902170303 | 34 | 206 | 4.8 | 12.9 | 0.00 | 0.00 | 0.00 | 48 | 1015.5 |
| 20260902170202 | 34 | 135 | 6.4 | 12.9 | 0.00 | 0.00 | 0.00 | 48 | 1015.5 |
| 20260902170103 | 34 | 137 | 8.0 | 12.9 | 0.00 | 0.00 | 0.00 | 48 | 1015.5 |
| 20260902170004 | 34 | 110 | 8.0 | 12.9 | 0.00 | 0.00 | 0.00 | 49 | 1015.5 |
| 20260902170002 | 34 | 110 | 6.4 | 12.9 | 0.00 | 0.00 | 0.00 | 49 | 1013.6 |
| 20260902165903 | 34 | 104 | 6.4 | 11.3 | 0.00 | 0.00 | 0.00 | 50 | 1015.5 |
| 20260902165803 | 34 | 27 | 6.4 | 9.7 | 0.00 | 0.00 | 0.00 | 48 | 1015.5 |
| 20260902165703 | 34 | 40 | 6.4 | 9.7 | 0.00 | 0.00 | 0.00 | 48 | 1015.5 |
| 20260902165603 | 34 | 59 | 4.8 | 11.3 | 0.00 | 0.00 | 0.00 | 48 | 1015.6 |
| 20260902165502 | 34 | 67 | 3.2 | 9.7 | 0.00 | 0.00 | 0.00 | 49 | 1015.6 |
| 20260902165402 | 33 | 55 | 3.2 | 12.9 | 0.00 | 0.00 | 0.00 | 49 | 1015.6 |
| 20260902165308 | 33 | 76 | 4.8 | 14.5 | 0.00 | 0.00 | 0.00 | 51 | 1015.6 |
| 20260902165202 | 33 | 73 | 4.8 | 16.1 | 0.00 | 0.00 | 0.00 | 52 | 1015.6 |
| 20260902165101 | 33 | 126 | 4.8 | 16.1 | 0.00 | 0.00 | 0.00 | 52 | 1015.6 |
| 20260902165003 | 33 | 92 | 4.8 | 16.1 | 0.00 | 0.00 | 0.00 | 52 | 1015.6 |
| 20260902164802 | 33 | 73 | 4.8 | 16.1 | 0.00 | 0.00 | 0.00 | 51 | 1015.6 |
| 20260902164702 | 33 | 115 | 6.4 | 16.1 | 0.00 | 0.00 | 0.00 | 51 | 1015.6 |
| 20260902164601 | 33 | 121 | 8.0 | 16.1 | 0.00 | 0.00 | 0.00 | 52 | 1015.6 |
| 20260902164501 | 33 | 105 | 8.0 | 17.7 | 0.00 | 0.00 | 0.00 | 52 | 1015.6 |
| 20260902164402 | 33 | 121 | 6.4 | 17.7 | 0.00 | 0.00 | 0.00 | 51 | 1015.6 |
| 20260902164302 | 33 | 154 | 8.0 | 17.7 | 0.00 | 0.00 | 0.00 | 51 | 1015.6 |
| 20260902164203 | 33 | 204 | 8.0 | 17.7 | 0.00 | 0.00 | 0.00 | 51 | 1015.6 |
| 20260902164101 | 33 | 132 | 8.0 | 17.7 | 0.00 | 0.00 | 0.00 | 51 | 1015.7 |
| 20260902164001 | 33 | 174 | 9.7 | 17.7 | 0.00 | 0.00 | 0.00 | 51 | 1015.8 |
| 20260902163902 | 33 | 111 | 11.3 | 17.7 | 0.00 | 0.00 | 0.00 | 52 | 1015.8 |
| 20260902163803 | 33 | 128 | 9.7 | 17.7 | 0.00 | 0.00 | 0.00 | 52 | 1015.7 |
| 20260902163702 | 33 | 117 | 8.0 | 17.7 | 0.00 | 0.00 | 0.00 | 52 | 1015.7 |
| 20260902163602 | 33 | 123 | 9.7 | 16.1 | 0.00 | 0.00 | 0.00 | 52 | 1015.7 |
| 20260902163502 | 33 | 127 | 9.7 | 16.1 | 0.00 | 0.00 | 0.00 | 52 | 1015.8 |
| 20260902163401 | 33 | 103 | 9.7 | 16.1 | 0.00 | 0.00 | 0.00 | 52 | 1015.8 |
| 20260902163202 | 33 | 171 | 6.4 | 11.3 | 0.00 | 0.00 | 0.00 | 51 | 1015.8 |
| 20260902163006 | 33 | 162 | 3.2 | 12.9 | 0.00 | 0.00 | 0.00 | 51 | 1014.0 |
| 20260902163004 | 33 | 162 | 4.8 | 12.9 | 0.00 | 0.00 | 0.00 | 51 | 1015.9 |
| 20260902162802 | 33 | 103 | 4.8 | 17.7 | 0.00 | 0.00 | 0.00 | 52 | 1015.9 |
| 20260902162702 | 33 | 110 | 4.8 | 17.7 | 0.00 | 0.00 | 0.00 | 53 | 1015.9 |
| 20260902162603 | 33 | 76 | 4.8 | 17.7 | 0.00 | 0.00 | 0.00 | 51 | 1015.9 |
| 20260902162503 | 33 | 61 | 4.8 | 17.7 | 0.00 | 0.00 | 0.00 | 53 | 1015.8 |
| 20260902162403 | 33 | 80 | 6.4 | 17.7 | 0.00 | 0.00 | 0.00 | 53 | 1015.8 |
| 20260902162103 | 33 | 118 | 4.8 | 14.5 | 0.00 | 0.00 | 0.00 | 53 | 1015.9 |
| 20260902161902 | 33 | 154 | 6.4 | 14.5 | 0.00 | 0.00 | 0.00 | 53 | 1016.0 |
| 20260902161802 | 33 | 98 | 8.0 | 14.5 | 0.00 | 0.00 | 0.00 | 53 | 1015.9 |
| 20260902161702 | 33 | 142 | 8.0 | 14.5 | 0.00 | 0.00 | 0.00 | 52 | 1016.0 |
| 20260902161602 | 33 | 114 | 6.4 | 14.5 | 0.00 | 0.00 | 0.00 | 53 | 1016.0 |
| 20260902161506 | 33 | 161 | 3.2 | 14.5 | 0.00 | 0.00 | 0.00 | 53 | 1014.0 |
| 20260902161502 | 33 | 161 | 3.2 | 14.5 | 0.00 | 0.00 | 0.00 | 53 | 1015.9 |
| 20260902161402 | 33 | 170 | 3.2 | 14.5 | 0.00 | 0.00 | 0.00 | 53 | 1015.9 |
| 20260902161303 | 33 | 114 | 3.2 | 14.5 | 0.00 | 0.00 | 0.00 | 54 | 1015.9 |
| 20260902161203 | 33 | 125 | 6.4 | 14.5 | 0.00 | 0.00 | 0.00 | 53 | 1016.0 |
| 20260902161103 | 33 | 138 | 6.4 | 14.5 | 0.00 | 0.00 | 0.00 | 52 | 1016.0 |
| 20260902160802 | 32 | 134 | 3.2 | 14.5 | 0.00 | 0.00 | 0.00 | 55 | 1016.0 |
| 20260902160601 | 32 | 106 | 6.4 | 16.1 | 0.00 | 0.00 | 0.00 | 55 | 1015.9 |
| 20260902160502 | 32 | 109 | 8.0 | 16.1 | 0.00 | 0.00 | 0.00 | 55 | 1016.0 |
| 20260902160402 | 32 | 123 | 6.4 | 16.1 | 0.00 | 0.00 | 0.00 | 53 | 1015.9 |
| 20260902160303 | 32 | 132 | 6.4 | 16.1 | 0.00 | 0.00 | 0.00 | 53 | 1015.9 |
| 20260902160203 | 32 | 154 | 8.0 | 16.1 | 0.00 | 0.00 | 0.00 | 53 | 1015.9 |
| 20260902160103 | 32 | 130 | 9.7 | 16.1 | 0.00 | 0.00 | 0.00 | 53 | 1016.0 |
| 20260902160003 | 32 | 127 | 8.0 | 16.1 | 0.00 | 0.00 | 0.00 | 54 | 1015.9 |
| 20260902155802 | 32 | 138 | 6.4 | 16.1 | 0.00 | 0.00 | 0.00 | 53 | 1016.0 |
| 20260902155602 | 32 | 113 | 8.0 | 16.1 | 0.00 | 0.00 | 0.00 | 55 | 1015.9 |
| 20260902155502 | 32 | 129 | 11.3 | 16.1 | 0.00 | 0.00 | 0.00 | 55 | 1015.9 |
| 20260902155401 | 32 | 148 | 9.7 | 16.1 | 0.00 | 0.00 | 0.00 | 55 | 1015.9 |
| 20260902155301 | 32 | 119 | 6.4 | 16.1 | 0.00 | 0.00 | 0.00 | 55 | 1015.9 |
| 20260902155101 | 32 | 109 | 6.4 | 12.9 | 0.00 | 0.00 | 0.00 | 57 | 1015.9 |
| 20260902154902 | 32 | 103 | 4.8 | 12.9 | 0.00 | 0.00 | 0.00 | 58 | 1015.9 |
| 20260902154802 | 32 | 76 | 4.8 | 12.9 | 0.00 | 0.00 | 0.00 | 58 | 1015.9 |
| 20260902154702 | 31 | 63 | 6.4 | 12.9 | 0.00 | 0.00 | 0.00 | 58 | 1015.9 |
| 20260902154605 | 31 | 102 | 6.4 | 12.9 | 0.00 | 0.00 | 0.00 | 58 | 1014.0 |
| 20260902154602 | 31 | 102 | 6.4 | 12.9 | 0.00 | 0.00 | 0.00 | 58 | 1015.9 |
| 20260902154505 | 31 | 112 | 6.4 | 12.9 | 0.00 | 0.00 | 0.00 | 58 | 1014.0 |
| 20260902154503 | 31 | 112 | 8.0 | 12.9 | 0.00 | 0.00 | 0.00 | 58 | 1015.9 |
| 20260902154402 | 31 | 125 | 8.0 | 12.9 | 0.00 | 0.00 | 0.00 | 58 | 1015.8 |
| 20260902154302 | 31 | 119 | 8.0 | 12.9 | 0.00 | 0.00 | 0.00 | 58 | 1015.8 |
| 20260902154201 | 31 | 135 | 6.4 | 12.9 | 0.00 | 0.00 | 0.00 | 58 | 1015.8 |
| 20260902154100 | 31 | 124 | 4.8 | 12.9 | 0.00 | 0.00 | 0.00 | 58 | 1015.9 |
| 20260902154001 | 31 | 153 | 4.8 | 11.3 | 0.00 | 0.00 | 0.00 | 58 | 1015.9 |
| 20260902153901 | 31 | 163 | 1.6 | 11.3 | 0.00 | 0.00 | 0.00 | 58 | 1015.8 |
| 20260902153701 | 31 | 173 | 4.8 | 11.3 | 0.00 | 0.00 | 0.00 | 59 | 1015.8 |
| 20260902153600 | 31 | 171 | 4.8 | 11.3 | 0.00 | 0.00 | 0.00 | 59 | 1015.9 |
| 20260902153501 | 31 | 173 | 4.8 | 11.3 | 0.00 | 0.00 | 0.00 | 58 | 1015.9 |
| 20260902153303 | 31 | 165 | 6.4 | 11.3 | 0.00 | 0.00 | 0.00 | 59 | 1015.8 |
| 20260902153200 | 31 | 154 | 6.4 | 11.3 | 0.00 | 0.00 | 0.00 | 60 | 1015.9 |
| 20260902153104 | 31 | 134 | 4.8 | 11.3 | 0.00 | 0.00 | 0.00 | 60 | 1013.9 |
| 20260902153101 | 31 | 134 | 6.4 | 11.3 | 0.00 | 0.00 | 0.00 | 60 | 1015.8 |
| 20260902153001 | 31 | 107 | 4.8 | 11.3 | 0.00 | 0.00 | 0.00 | 60 | 1015.8 |
| 20260902152900 | 31 | 126 | 3.2 | 9.7 | 0.00 | 0.00 | 0.00 | 60 | 1015.8 |
| 20260902152800 | 31 | 189 | 3.2 | 9.7 | 0.00 | 0.00 | 0.00 | 60 | 1015.8 |
| 20260902152702 | 31 | 172 | 4.8 | 8.0 | 0.00 | 0.00 | 0.00 | 60 | 1015.8 |
| 20260902152501 | 31 | 155 | 3.2 | 9.7 | 0.00 | 0.00 | 0.00 | 60 | 1015.8 |
| 20260902152401 | 31 | 135 | 1.6 | 8.0 | 0.00 | 0.00 | 0.00 | 60 | 1015.8 |
| 20260902152301 | 31 | 115 | 1.6 | 8.0 | 0.00 | 0.00 | 0.00 | 60 | 1015.8 |
| 20260902152201 | 31 | 116 | 1.6 | 8.0 | 0.00 | 0.00 | 0.00 | 60 | 1015.8 |
| 20260902152101 | 31 | 88 | 3.2 | 8.0 | 0.00 | 0.00 | 0.00 | 61 | 1015.8 |
| 20260902152002 | 31 | 123 | 3.2 | 8.0 | 0.00 | 0.00 | 0.00 | 60 | 1015.8 |
| 20260902151902 | 31 | 150 | 3.2 | 11.3 | 0.00 | 0.00 | 0.00 | 60 | 1015.8 |
| 20260902151801 | 31 | 161 | 3.2 | 11.3 | 0.00 | 0.00 | 0.00 | 61 | 1015.8 |
| 20260902151700 | 31 | 165 | 4.8 | 11.3 | 0.00 | 0.00 | 0.00 | 60 | 1015.8 |
| 20260902151602 | 31 | 171 | 3.2 | 11.3 | 0.00 | 0.00 | 0.00 | 60 | 1013.9 |
| 20260902151501 | 30 | 144 | 3.2 | 11.3 | 0.00 | 0.00 | 0.00 | 61 | 1015.8 |
| 20260902151401 | 30 | 113 | 3.2 | 11.3 | 0.00 | 0.00 | 0.00 | 61 | 1015.8 |
| 20260902151301 | 30 | 111 | 4.8 | 11.3 | 0.00 | 0.00 | 0.00 | 61 | 1015.7 |
| 20260902151203 | 30 | 116 | 3.2 | 12.9 | 0.00 | 0.00 | 0.00 | 61 | 1015.7 |
| 20260902151101 | 30 | 137 | 3.2 | 12.9 | 0.00 | 0.00 | 0.00 | 62 | 1015.7 |
| 20260902151001 | 30 | 151 | 3.2 | 12.9 | 0.00 | 0.00 | 0.00 | 61 | 1015.8 |
| 20260902150902 | 30 | 150 | 4.8 | 12.9 | 0.00 | 0.00 | 0.00 | 62 | 1015.7 |
| 20260902150802 | 30 | 112 | 4.8 | 12.9 | 0.00 | 0.00 | 0.00 | 63 | 1015.7 |
| 20260902150701 | 30 | 102 | 4.8 | 12.9 | 0.00 | 0.00 | 0.00 | 63 | 1015.7 |
| 20260902150501 | 30 | 135 | 8.0 | 12.9 | 0.00 | 0.00 | 0.00 | 63 | 1015.7 |
| 20260902150400 | 30 | 111 | 6.4 | 12.9 | 0.00 | 0.00 | 0.00 | 63 | 1015.6 |
| 20260902150300 | 30 | 140 | 3.2 | 14.5 | 0.00 | 0.00 | 0.00 | 63 | 1015.6 |
| 20260902150101 | 30 | 171 | 4.8 | 11.3 | 0.00 | 0.00 | 0.00 | 63 | 1015.7 |
| 20260902150001 | 30 | 168 | 4.8 | 11.3 | 0.00 | 0.00 | 0.00 | 63 | 1015.6 |
| 20260902145901 | 30 | 158 | 3.2 | 11.3 | 0.00 | 0.00 | 0.00 | 62 | 1015.6 |
| 20260902145801 | 30 | 132 | 3.2 | 11.3 | 0.00 | 0.00 | 0.00 | 63 | 1015.6 |
| 20260902145701 | 30 | 150 | 1.6 | 6.4 | 0.00 | 0.00 | 0.00 | 63 | 1015.6 |
| 20260902145400 | 30 | 130 | 3.2 | 9.7 | 0.00 | 0.00 | 0.00 | 63 | 1015.6 |
| 20260902145201 | 30 | 144 | 4.8 | 9.7 | 0.00 | 0.00 | 0.00 | 62 | 1015.5 |
| 20260902145102 | 30 | 130 | 4.8 | 9.7 | 0.00 | 0.00 | 0.00 | 63 | 1015.5 |
| 20260902145002 | 30 | 167 | 3.2 | 9.7 | 0.00 | 0.00 | 0.00 | 64 | 1015.5 |
| 20260902144900 | 30 | 153 | 3.2 | 9.7 | 0.00 | 0.00 | 0.00 | 64 | 1015.5 |
| 20260902144801 | 29 | 122 | 3.2 | 9.7 | 0.00 | 0.00 | 0.00 | 65 | 1015.5 |
| 20260902144702 | 29 | 123 | 3.2 | 9.7 | 0.00 | 0.00 | 0.00 | 65 | 1015.6 |
| 20260902144602 | 29 | 124 | 4.8 | 9.7 | 0.00 | 0.00 | 0.00 | 65 | 1013.7 |
| 20260902144505 | 29 | 118 | 3.2 | 8.0 | 0.00 | 0.00 | 0.00 | 65 | 1013.7 |
| 20260902144502 | 29 | 118 | 4.8 | 8.0 | 0.00 | 0.00 | 0.00 | 65 | 1015.6 |
| 20260902144401 | 29 | 169 | 3.2 | 8.0 | 0.00 | 0.00 | 0.00 | 65 | 1015.6 |
| 20260902144301 | 29 | 136 | 1.6 | 8.0 | 0.00 | 0.00 | 0.00 | 65 | 1015.7 |
| 20260902144201 | 29 | 190 | 3.2 | 8.0 | 0.00 | 0.00 | 0.00 | 66 | 1015.7 |
| 20260902144100 | 29 | 206 | 3.2 | 8.0 | 0.00 | 0.00 | 0.00 | 66 | 1015.7 |
| 20260902144001 | 29 | 157 | 1.6 | 8.0 | 0.00 | 0.00 | 0.00 | 65 | 1015.7 |
| 20260902143901 | 29 | 157 | 3.2 | 8.0 | 0.00 | 0.00 | 0.00 | 65 | 1015.7 |
| 20260902143701 | 29 | 156 | 6.4 | 8.0 | 0.00 | 0.00 | 0.00 | 66 | 1015.7 |
| 20260902143600 | 28 | 171 | 4.8 | 9.7 | 0.00 | 0.00 | 0.00 | 66 | 1015.7 |
| 20260902143500 | 28 | 130 | 3.2 | 6.4 | 0.00 | 0.00 | 0.00 | 66 | 1015.7 |
| 20260902143400 | 28 | 146 | 1.6 | 6.4 | 0.00 | 0.00 | 0.00 | 66 | 1015.7 |
| 20260902143300 | 28 | 159 | 1.6 | 6.4 | 0.00 | 0.00 | 0.00 | 66 | 1015.8 |
| 20260902143201 | 28 | 158 | 3.2 | 9.7 | 0.00 | 0.00 | 0.00 | 66 | 1015.8 |
| 20260902143102 | 28 | 153 | 4.8 | 9.7 | 0.00 | 0.00 | 0.00 | 66 | 1013.8 |
| 20260902142900 | 28 | 137 | 4.8 | 9.7 | 0.00 | 0.00 | 0.00 | 66 | 1015.7 |
| 20260902142701 | 28 | 147 | 3.2 | 9.7 | 0.00 | 0.00 | 0.00 | 67 | 1015.7 |
| 20260902142601 | 28 | 125 | 4.8 | 9.7 | 0.00 | 0.00 | 0.00 | 67 | 1015.7 |
| 20260902142501 | 28 | 133 | 6.4 | 9.7 | 0.00 | 0.00 | 0.00 | 67 | 1015.8 |
| 20260902142402 | 28 | 126 | 6.4 | 9.7 | 0.00 | 0.00 | 0.00 | 67 | 1015.8 |
| 20260902142301 | 28 | 144 | 4.8 | 9.7 | 0.00 | 0.00 | 0.00 | 67 | 1015.7 |
| 20260902142100 | 28 | 161 | 4.8 | 9.7 | 0.00 | 0.00 | 0.00 | 67 | 1015.8 |
| 20260902141902 | 28 | 169 | 6.4 | 9.7 | 0.00 | 0.00 | 0.00 | 67 | 1015.8 |
| 20260902141802 | 28 | 174 | 6.4 | 8.0 | 0.00 | 0.00 | 0.00 | 67 | 1015.8 |
| 20260902141603 | 28 | 155 | 3.2 | 8.0 | 0.00 | 0.00 | 0.00 | 68 | 1013.9 |
| 20260902141501 | 28 | 163 | 4.8 | 12.9 | 0.00 | 0.00 | 0.00 | 68 | 1015.8 |
| 20260902141400 | 28 | 161 | 4.8 | 12.9 | 0.00 | 0.00 | 0.00 | 68 | 1015.7 |
| 20260902141301 | 28 | 118 | 4.8 | 12.9 | 0.00 | 0.00 | 0.00 | 69 | 1015.8 |
| 20260902141201 | 28 | 133 | 4.8 | 14.5 | 0.00 | 0.00 | 0.00 | 69 | 1015.7 |
| 20260902141002 | 28 | 143 | 4.8 | 16.1 | 0.00 | 0.00 | 0.00 | 70 | 1015.7 |
| 20260902140902 | 28 | 105 | 4.8 | 16.1 | 0.00 | 0.00 | 0.00 | 69 | 1015.8 |
| 20260902140801 | 28 | 109 | 6.4 | 16.1 | 0.00 | 0.00 | 0.00 | 69 | 1015.7 |
| 20260902140701 | 28 | 97 | 6.4 | 16.1 | 0.00 | 0.00 | 0.00 | 69 | 1015.7 |
| 20260902140601 | 28 | 128 | 6.4 | 16.1 | 0.00 | 0.00 | 0.00 | 69 | 1015.7 |
| 20260902140501 | 27 | 129 | 8.0 | 16.1 | 0.00 | 0.00 | 0.00 | 70 | 1015.7 |
| 20260902140401 | 27 | 103 | 9.7 | 16.1 | 0.00 | 0.00 | 0.00 | 69 | 1015.7 |
| 20260902140302 | 27 | 111 | 9.7 | 16.1 | 0.00 | 0.00 | 0.00 | 70 | 1015.7 |
| 20260902140202 | 27 | 126 | 9.7 | 14.5 | 0.00 | 0.00 | 0.00 | 70 | 1015.7 |
| 20260902140001 | 27 | 115 | 8.0 | 14.5 | 0.00 | 0.00 | 0.00 | 70 | 1013.7 |
| 20260902135901 | 27 | 154 | 8.0 | 14.5 | 0.00 | 0.00 | 0.00 | 70 | 1015.6 |
| 20260902135801 | 27 | 134 | 8.0 | 14.5 | 0.00 | 0.00 | 0.00 | 70 | 1015.6 |
| 20260902135701 | 27 | 157 | 8.0 | 14.5 | 0.00 | 0.00 | 0.00 | 70 | 1015.7 |
| 20260902135601 | 27 | 122 | 8.0 | 14.5 | 0.00 | 0.00 | 0.00 | 70 | 1015.6 |
| 20260902135500 | 27 | 122 | 8.0 | 14.5 | 0.00 | 0.00 | 0.00 | 71 | 1015.6 |
| 20260902135400 | 27 | 132 | 8.0 | 16.1 | 0.00 | 0.00 | 0.00 | 71 | 1015.7 |
| 20260902135300 | 27 | 123 | 9.7 | 16.1 | 0.00 | 0.00 | 0.00 | 71 | 1015.7 |
| 20260902135202 | 27 | 100 | 8.0 | 16.1 | 0.00 | 0.00 | 0.00 | 71 | 1015.7 |
| 20260902135101 | 27 | 130 | 8.0 | 16.1 | 0.00 | 0.00 | 0.00 | 71 | 1015.7 |
| 20260902135001 | 27 | 138 | 8.0 | 16.1 | 0.00 | 0.00 | 0.00 | 71 | 1015.7 |
| 20260902134800 | 27 | 137 | 11.3 | 16.1 | 0.00 | 0.00 | 0.00 | 71 | 1015.6 |
| 20260902134700 | 27 | 138 | 11.3 | 16.1 | 0.00 | 0.00 | 0.00 | 71 | 1015.7 |
| 20260902134602 | 27 | 97 | 11.3 | 16.1 | 0.00 | 0.00 | 0.00 | 71 | 1015.6 |
| 20260902134504 | 27 | 130 | 8.0 | 16.1 | 0.00 | 0.00 | 0.00 | 72 | 1013.7 |
| 20260902134502 | 27 | 130 | 9.7 | 16.1 | 0.00 | 0.00 | 0.00 | 72 | 1015.6 |
| 20260902134401 | 27 | 77 | 8.0 | 16.1 | 0.00 | 0.00 | 0.00 | 72 | 1015.6 |
| 20260902134301 | 27 | 116 | 8.0 | 14.5 | 0.00 | 0.00 | 0.00 | 72 | 1015.6 |
| 20260902134200 | 27 | 119 | 6.4 | 14.5 | 0.00 | 0.00 | 0.00 | 72 | 1015.6 |
| 20260902134102 | 27 | 124 | 8.0 | 14.5 | 0.00 | 0.00 | 0.00 | 72 | 1015.6 |
| 20260902134001 | 27 | 134 | 6.4 | 12.9 | 0.00 | 0.00 | 0.00 | 73 | 1015.5 |
| 20260902133901 | 27 | 107 | 4.8 | 11.3 | 0.00 | 0.00 | 0.00 | 73 | 1015.6 |
| 20260902133801 | 26 | 136 | 4.8 | 11.3 | 0.00 | 0.00 | 0.00 | 73 | 1015.6 |
| 20260902133602 | 26 | 134 | 4.8 | 11.3 | 0.00 | 0.00 | 0.00 | 73 | 1015.6 |
| 20260902133501 | 26 | 140 | 4.8 | 11.3 | 0.00 | 0.00 | 0.00 | 73 | 1015.6 |
| 20260902133301 | 26 | 130 | 4.8 | 11.3 | 0.00 | 0.00 | 0.00 | 73 | 1015.6 |
| 20260902133201 | 26 | 149 | 4.8 | 11.3 | 0.00 | 0.00 | 0.00 | 74 | 1015.5 |
| 20260902133106 | 26 | 127 | 4.8 | 11.3 | 0.00 | 0.00 | 0.00 | 74 | 1013.7 |
| 20260902133102 | 26 | 129 | 4.8 | 11.3 | 0.00 | 0.00 | 0.00 | 74 | 1015.5 |
| 20260902133001 | 26 | 133 | 4.8 | 11.3 | 0.00 | 0.00 | 0.00 | 74 | 1015.5 |
| 20260902132901 | 26 | 138 | 4.8 | 11.3 | 0.00 | 0.00 | 0.00 | 74 | 1015.6 |
| 20260902132800 | 26 | 128 | 4.8 | 11.3 | 0.00 | 0.00 | 0.00 | 75 | 1015.6 |
| 20260902132701 | 26 | 144 | 3.2 | 11.3 | 0.00 | 0.00 | 0.00 | 75 | 1015.6 |
| 20260902132401 | 26 | 128 | 4.8 | 11.3 | 0.00 | 0.00 | 0.00 | 76 | 1015.6 |
| 20260902132201 | 26 | 120 | 4.8 | 11.3 | 0.00 | 0.00 | 0.00 | 76 | 1015.6 |
| 20260902132101 | 26 | 127 | 4.8 | 11.3 | 0.00 | 0.00 | 0.00 | 77 | 1015.6 |
| 20260902132001 | 26 | 128 | 3.2 | 11.3 | 0.00 | 0.00 | 0.00 | 77 | 1015.6 |
| 20260902131700 | 25 | 149 | 1.6 | 6.4 | 0.00 | 0.00 | 0.00 | 78 | 1015.5 |
| 20260902131608 | 25 | 123 | 1.6 | 6.4 | 0.00 | 0.00 | 0.00 | 77 | 1013.6 |
| 20260902131601 | 25 | 123 | 3.2 | 6.4 | 0.00 | 0.00 | 0.00 | 77 | 1015.5 |
| 20260902131501 | 25 | 137 | 3.2 | 6.4 | 0.00 | 0.00 | 0.00 | 78 | 1015.5 |
| 20260902131400 | 25 | 130 | 3.2 | 6.4 | 0.00 | 0.00 | 0.00 | 78 | 1015.5 |
| 20260902131201 | 25 | 125 | 4.8 | 6.4 | 0.00 | 0.00 | 0.00 | 79 | 1015.5 |
| 20260902131101 | 25 | 125 | 3.2 | 6.4 | 0.00 | 0.00 | 0.00 | 79 | 1015.5 |
| 20260902131001 | 25 | 119 | 3.2 | 6.4 | 0.00 | 0.00 | 0.00 | 79 | 1015.6 |
| 20260902130901 | 25 | 117 | 3.2 | 6.4 | 0.00 | 0.00 | 0.00 | 79 | 1015.5 |
| 20260902130801 | 25 | 117 | 3.2 | 6.4 | 0.00 | 0.00 | 0.00 | 79 | 1015.5 |
| 20260902130701 | 25 | 122 | 1.6 | 6.4 | 0.00 | 0.00 | 0.00 | 80 | 1015.5 |
| 20260902130602 | 25 | 130 | 1.6 | 4.8 | 0.00 | 0.00 | 0.00 | 80 | 1015.5 |
| 20260902130501 | 24 | 131 | 0.0 | 3.2 | 0.00 | 0.00 | 0.00 | 80 | 1015.5 |
| 20260902130301 | 24 | 134 | 0.0 | 0.0 | 0.00 | 0.00 | 0.00 | 81 | 1015.5 |
| 20260902130201 | 24 | 135 | 0.0 | 0.0 | 0.00 | 0.00 | 0.00 | 81 | 1015.4 |
| 20260902130106 | 24 | 135 | 0.0 | 0.0 | 0.00 | 0.00 | 0.00 | 81 | 1013.6 |
| 20260902130000 | 24 | 135 | 0.0 | 0.0 | 0.00 | 0.00 | 0.00 | 81 | 1013.6 |
| 20260902125900 | 24 | 135 | 0.0 | 0.0 | 0.00 | 0.00 | 0.00 | 81 | 1015.4 |
| 20260902125600 | 24 | 136 | 0.0 | 0.0 | 0.00 | 0.00 | 0.00 | 82 | 1015.4 |
| 20260902125500 | 23 | 135 | 0.0 | 0.0 | 0.00 | 0.00 | 0.00 | 82 | 1015.3 |
| 20260902125400 | 23 | 136 | 0.0 | 0.0 | 0.00 | 0.00 | 0.00 | 82 | 1015.4 |
| 20260902125300 | 23 | 136 | 0.0 | 0.0 | 0.00 | 0.00 | 0.00 | 82 | 1015.3 |
| 20260902125200 | 23 | 136 | 0.0 | 0.0 | 0.00 | 0.00 | 0.00 | 82 | 1015.4 |
| 20260902125059 | 23 | 136 | 0.0 | 0.0 | 0.00 | 0.00 | 0.00 | 82 | 1015.4 |
| 20260902125001 | 23 | 136 | 0.0 | 0.0 | 0.00 | 0.00 | 0.00 | 82 | 1015.4 |
| 20260902124901 | 23 | 136 | 0.0 | 0.0 | 0.00 | 0.00 | 0.00 | 82 | 1015.4 |
| 20260902124801 | 23 | 136 | 0.0 | 0.0 | 0.00 | 0.00 | 0.00 | 82 | 1015.3 |
| 20260902124701 | 23 | 136 | 0.0 | 0.0 | 0.00 | 0.00 | 0.00 | 83 | 1015.3 |
| 20260902124600 | 23 | 136 | 0.0 | 0.0 | 0.00 | 0.00 | 0.00 | 83 | 1013.4 |
| 20260902124500 | 23 | 136 | 0.0 | 0.0 | 0.00 | 0.00 | 0.00 | 83 | 1015.3 |
| 20260902124400 | 23 | 136 | 0.0 | 0.0 | 0.00 | 0.00 | 0.00 | 82 | 1015.3 |
| 20260902124259 | 23 | 136 | 0.0 | 0.0 | 0.00 | 0.00 | 0.00 | 83 | 1015.3 |
| 20260902124159 | 23 | 136 | 0.0 | 0.0 | 0.00 | 0.00 | 0.00 | 83 | 1015.3 |
| 20260902124100 | 23 | 136 | 0.0 | 0.0 | 0.00 | 0.00 | 0.00 | 83 | 1015.3 |
| 20260902124001 | 23 | 136 | 0.0 | 0.0 | 0.00 | 0.00 | 0.00 | 83 | 1015.3 |
| 20260902123800 | 23 | 136 | 0.0 | 0.0 | 0.00 | 0.00 | 0.00 | 83 | 1015.2 |
| 20260902123700 | 23 | 136 | 0.0 | 0.0 | 0.00 | 0.00 | 0.00 | 83 | 1015.1 |
| 20260902123600 | 23 | 136 | 0.0 | 0.0 | 0.00 | 0.00 | 0.00 | 83 | 1015.2 |
| 20260902123500 | 23 | 136 | 0.0 | 0.0 | 0.00 | 0.00 | 0.00 | 83 | 1015.1 |
| 20260902123402 | 23 | 135 | 0.0 | 0.0 | 0.00 | 0.00 | 0.00 | 83 | 1015.1 |
| 20260902123159 | 23 | 136 | 0.0 | 0.0 | 0.00 | 0.00 | 0.00 | 83 | 1015.0 |
| 20260902123105 | 23 | 136 | 0.0 | 0.0 | 0.00 | 0.00 | 0.00 | 83 | 1013.1 |
| 20260902123100 | 23 | 136 | 0.0 | 0.0 | 0.00 | 0.00 | 0.00 | 83 | 1015.0 |
| 20260902123001 | 23 | 136 | 0.0 | 0.0 | 0.00 | 0.00 | 0.00 | 84 | 1015.0 |
| 20260902122859 | 23 | 136 | 0.0 | 0.0 | 0.00 | 0.00 | 0.00 | 84 | 1015.0 |
| 20260902122800 | 23 | 136 | 0.0 | 0.0 | 0.00 | 0.00 | 0.00 | 84 | 1014.9 |
| 20260902122700 | 23 | 136 | 0.0 | 0.0 | 0.00 | 0.00 | 0.00 | 84 | 1014.9 |
| 20260902122600 | 23 | 136 | 0.0 | 0.0 | 0.00 | 0.00 | 0.00 | 84 | 1014.9 |
| 20260902122359 | 23 | 136 | 0.0 | 0.0 | 0.00 | 0.00 | 0.00 | 84 | 1014.9 |
| 20260902122300 | 23 | 136 | 0.0 | 0.0 | 0.00 | 0.00 | 0.00 | 84 | 1014.9 |
| 20260902122200 | 23 | 136 | 0.0 | 0.0 | 0.00 | 0.00 | 0.00 | 84 | 1014.9 |
| 20260902122100 | 23 | 136 | 0.0 | 0.0 | 0.00 | 0.00 | 0.00 | 84 | 1014.9 |
| 20260902122000 | 22 | 136 | 0.0 | 0.0 | 0.00 | 0.00 | 0.00 | 84 | 1015.0 |
| 20260902121903 | 22 | 136 | 0.0 | 0.0 | 0.00 | 0.00 | 0.00 | 84 | 1015.0 |
| 20260902121659 | 22 | 136 | 0.0 | 0.0 | 0.00 | 0.00 | 0.00 | 84 | 1014.9 |
| 20260902121609 | 22 | 136 | 0.0 | 0.0 | 0.00 | 0.00 | 0.00 | 84 | 1013.1 |
| 20260902121559 | 22 | 136 | 0.0 | 0.0 | 0.00 | 0.00 | 0.00 | 84 | 1015.0 |
| 20260902121500 | 22 | 136 | 0.0 | 3.2 | 0.00 | 0.00 | 0.00 | 84 | 1015.0 |
| 20260902121300 | 22 | 136 | 0.0 | 3.2 | 0.00 | 0.00 | 0.00 | 84 | 1015.0 |
| 20260902121059 | 22 | 137 | 0.0 | 3.2 | 0.00 | 0.00 | 0.00 | 84 | 1015.0 |
| 20260902121000 | 22 | 137 | 0.0 | 3.2 | 0.00 | 0.00 | 0.00 | 84 | 1014.9 |
| 20260902120859 | 22 | 137 | 0.0 | 3.2 | 0.00 | 0.00 | 0.00 | 84 | 1015.0 |
| 20260902120800 | 22 | 137 | 0.0 | 3.2 | 0.00 | 0.00 | 0.00 | 84 | 1014.9 |
| 20260902120700 | 22 | 137 | 0.0 | 3.2 | 0.00 | 0.00 | 0.00 | 84 | 1014.9 |
| 20260902120600 | 22 | 137 | 0.0 | 3.2 | 0.00 | 0.00 | 0.00 | 84 | 1014.9 |
| 20260902120200 | 22 | 138 | 0.0 | 3.2 | 0.00 | 0.00 | 0.00 | 84 | 1014.9 |
| 20260902120059 | 22 | 138 | 0.0 | 3.2 | 0.00 | 0.00 | 0.00 | 84 | 1013.1 |
| 20260902120002 | 22 | 138 | 0.0 | 3.2 | 0.00 | 0.00 | 0.00 | 84 | 1014.9 |
| 20260902115900 | 22 | 138 | 0.0 | 1.6 | 0.00 | 0.00 | 0.00 | 84 | 1014.9 |
| 20260902115800 | 22 | 138 | 0.0 | 0.0 | 0.00 | 0.00 | 0.00 | 84 | 1014.9 |
| 20260902115700 | 22 | 138 | 0.0 | 0.0 | 0.00 | 0.00 | 0.00 | 84 | 1014.9 |
| 20260902115601 | 22 | 138 | 0.0 | 0.0 | 0.00 | 0.00 | 0.00 | 84 | 1014.8 |
| 20260902115501 | 22 | 138 | 0.0 | 0.0 | 0.00 | 0.00 | 0.00 | 84 | 1014.8 |
| 20260902115402 | 22 | 138 | 0.0 | 0.0 | 0.00 | 0.00 | 0.00 | 84 | 1014.8 |
| 20260902115203 | 22 | 138 | 0.0 | 0.0 | 0.00 | 0.00 | 0.00 | 84 | 1014.8 |
| 20260902115100 | 22 | 138 | 0.0 | 0.0 | 0.00 | 0.00 | 0.00 | 84 | 1014.8 |
| 20260902115001 | 22 | 138 | 0.0 | 0.0 | 0.00 | 0.00 | 0.00 | 84 | 1014.8 |
| 20260902114902 | 22 | 138 | 0.0 | 0.0 | 0.00 | 0.00 | 0.00 | 84 | 1014.8 |
| 20260902114801 | 22 | 138 | 0.0 | 0.0 | 0.00 | 0.00 | 0.00 | 83 | 1014.8 |
| 20260902114701 | 22 | 138 | 0.0 | 0.0 | 0.00 | 0.00 | 0.00 | 83 | 1014.8 |
| 20260902114601 | 22 | 138 | 0.0 | 0.0 | 0.00 | 0.00 | 0.00 | 83 | 1014.8 |
| 20260902114502 | 22 | 138 | 0.0 | 0.0 | 0.00 | 0.00 | 0.00 | 83 | 1012.9 |
| 20260902114302 | 22 | 138 | 0.0 | 0.0 | 0.00 | 0.00 | 0.00 | 83 | 1014.8 |
| 20260902114200 | 22 | 138 | 0.0 | 0.0 | 0.00 | 0.00 | 0.00 | 83 | 1014.8 |
| 20260902114100 | 22 | 138 | 0.0 | 0.0 | 0.00 | 0.00 | 0.00 | 83 | 1014.8 |
| 20260902114001 | 22 | 138 | 0.0 | 0.0 | 0.00 | 0.00 | 0.00 | 83 | 1014.8 |
| 20260902113902 | 22 | 138 | 0.0 | 0.0 | 0.00 | 0.00 | 0.00 | 83 | 1014.8 |
| 20260902113801 | 22 | 138 | 0.0 | 0.0 | 0.00 | 0.00 | 0.00 | 83 | 1014.8 |
| 20260902113701 | 22 | 138 | 0.0 | 0.0 | 0.00 | 0.00 | 0.00 | 83 | 1014.8 |
| 20260902113600 | 22 | 138 | 0.0 | 0.0 | 0.00 | 0.00 | 0.00 | 83 | 1014.8 |
| 20260902113501 | 22 | 138 | 0.0 | 0.0 | 0.00 | 0.00 | 0.00 | 83 | 1014.8 |
| 20260902113402 | 22 | 138 | 0.0 | 0.0 | 0.00 | 0.00 | 0.00 | 83 | 1014.8 |
| 20260902113301 | 23 | 138 | 0.0 | 0.0 | 0.00 | 0.00 | 0.00 | 83 | 1014.8 |
| 20260902113106 | 23 | 138 | 0.0 | 0.0 | 0.00 | 0.00 | 0.00 | 83 | 1012.9 |
| 20260902113100 | 23 | 138 | 0.0 | 0.0 | 0.00 | 0.00 | 0.00 | 83 | 1014.7 |
| 20260902113000 | 23 | 138 | 0.0 | 0.0 | 0.00 | 0.00 | 0.00 | 83 | 1012.9 |
| 20260902112901 | 23 | 138 | 0.0 | 0.0 | 0.00 | 0.00 | 0.00 | 83 | 1014.8 |
| 20260902112802 | 23 | 138 | 0.0 | 0.0 | 0.00 | 0.00 | 0.00 | 83 | 1014.8 |
| 20260902112701 | 23 | 138 | 0.0 | 0.0 | 0.00 | 0.00 | 0.00 | 83 | 1014.8 |
| 20260902112602 | 23 | 138 | 0.0 | 0.0 | 0.00 | 0.00 | 0.00 | 83 | 1014.8 |
| 20260902112502 | 23 | 138 | 0.0 | 0.0 | 0.00 | 0.00 | 0.00 | 83 | 1014.9 |
| 20260902112401 | 23 | 138 | 0.0 | 0.0 | 0.00 | 0.00 | 0.00 | 83 | 1014.8 |
| 20260902112301 | 23 | 138 | 0.0 | 0.0 | 0.00 | 0.00 | 0.00 | 83 | 1014.9 |
| 20260902112202 | 23 | 138 | 0.0 | 0.0 | 0.00 | 0.00 | 0.00 | 83 | 1014.9 |
| 20260902112101 | 23 | 138 | 0.0 | 0.0 | 0.00 | 0.00 | 0.00 | 83 | 1014.9 |
| 20260902112002 | 23 | 138 | 0.0 | 0.0 | 0.00 | 0.00 | 0.00 | 83 | 1014.9 |
| 20260902111901 | 23 | 138 | 0.0 | 0.0 | 0.00 | 0.00 | 0.00 | 83 | 1014.9 |
| 20260902111801 | 23 | 138 | 0.0 | 0.0 | 0.00 | 0.00 | 0.00 | 83 | 1014.9 |
| 20260902111601 | 23 | 138 | 0.0 | 0.0 | 0.00 | 0.00 | 0.00 | 83 | 1013.1 |
| 20260902111500 | 23 | 138 | 0.0 | 0.0 | 0.00 | 0.00 | 0.00 | 83 | 1014.9 |
| 20260902111400 | 23 | 138 | 0.0 | 0.0 | 0.00 | 0.00 | 0.00 | 83 | 1014.9 |
| 20260902111302 | 23 | 138 | 0.0 | 0.0 | 0.00 | 0.00 | 0.00 | 83 | 1014.9 |
| 20260902111202 | 23 | 138 | 0.0 | 0.0 | 0.00 | 0.00 | 0.00 | 83 | 1014.9 |
| 20260902111101 | 23 | 138 | 0.0 | 0.0 | 0.00 | 0.00 | 0.00 | 83 | 1014.9 |
| 20260902110901 | 23 | 138 | 0.0 | 0.0 | 0.00 | 0.00 | 0.00 | 83 | 1014.9 |
| 20260902110800 | 23 | 138 | 0.0 | 0.0 | 0.00 | 0.00 | 0.00 | 83 | 1014.9 |
| 20260902110700 | 23 | 138 | 0.0 | 0.0 | 0.00 | 0.00 | 0.00 | 83 | 1014.9 |
| 20260902110601 | 23 | 138 | 0.0 | 0.0 | 0.00 | 0.00 | 0.00 | 83 | 1014.9 |
| 20260902110401 | 23 | 138 | 0.0 | 0.0 | 0.00 | 0.00 | 0.00 | 83 | 1014.9 |
| 20260902110302 | 23 | 138 | 0.0 | 0.0 | 0.00 | 0.00 | 0.00 | 83 | 1015.0 |
| 20260902110202 | 23 | 138 | 0.0 | 0.0 | 0.00 | 0.00 | 0.00 | 82 | 1014.9 |
| 20260902110001 | 23 | 138 | 0.0 | 0.0 | 0.00 | 0.00 | 0.00 | 82 | 1013.1 |
| 20260902105901 | 23 | 138 | 0.0 | 0.0 | 0.00 | 0.00 | 0.00 | 82 | 1014.9 |
| 20260902105800 | 23 | 138 | 0.0 | 0.0 | 0.00 | 0.00 | 0.00 | 82 | 1014.9 |
| 20260902105700 | 23 | 138 | 0.0 | 0.0 | 0.00 | 0.00 | 0.00 | 82 | 1014.9 |
| 20260902105600 | 23 | 138 | 0.0 | 0.0 | 0.00 | 0.00 | 0.00 | 82 | 1014.9 |
| 20260902105459 | 23 | 138 | 0.0 | 0.0 | 0.00 | 0.00 | 0.00 | 82 | 1014.9 |
| 20260902105401 | 23 | 138 | 0.0 | 0.0 | 0.00 | 0.00 | 0.00 | 82 | 1014.9 |
| 20260902105300 | 23 | 138 | 0.0 | 0.0 | 0.00 | 0.00 | 0.00 | 82 | 1014.9 |
| 20260902105100 | 23 | 138 | 0.0 | 0.0 | 0.00 | 0.00 | 0.00 | 82 | 1014.9 |
| 20260902105002 | 23 | 138 | 0.0 | 0.0 | 0.00 | 0.00 | 0.00 | 83 | 1014.9 |
| 20260902104859 | 23 | 138 | 0.0 | 0.0 | 0.00 | 0.00 | 0.00 | 83 | 1014.9 |
| 20260902104800 | 23 | 138 | 0.0 | 0.0 | 0.00 | 0.00 | 0.00 | 83 | 1014.9 |
| 20260902104700 | 23 | 138 | 0.0 | 0.0 | 0.00 | 0.00 | 0.00 | 83 | 1014.9 |
| 20260902104611 | 23 | 138 | 0.0 | 0.0 | 0.00 | 0.00 | 0.00 | 83 | 1013.0 |
| 20260902104600 | 23 | 138 | 0.0 | 0.0 | 0.00 | 0.00 | 0.00 | 83 | 1014.9 |
| 20260902104500 | 23 | 138 | 0.0 | 0.0 | 0.00 | 0.00 | 0.00 | 83 | 1014.9 |
| 20260902104400 | 23 | 138 | 0.0 | 0.0 | 0.00 | 0.00 | 0.00 | 83 | 1014.8 |
| 20260902104300 | 23 | 138 | 0.0 | 0.0 | 0.00 | 0.00 | 0.00 | 83 | 1014.9 |
| 20260902104159 | 23 | 138 | 0.0 | 0.0 | 0.00 | 0.00 | 0.00 | 83 | 1014.9 |
| 20260902104100 | 23 | 138 | 0.0 | 0.0 | 0.00 | 0.00 | 0.00 | 83 | 1014.9 |
| 20260902104000 | 23 | 138 | 0.0 | 0.0 | 0.00 | 0.00 | 0.00 | 83 | 1014.9 |
| 20260902103901 | 23 | 138 | 0.0 | 0.0 | 0.00 | 0.00 | 0.00 | 83 | 1014.9 |
| 20260902103800 | 23 | 138 | 0.0 | 0.0 | 0.00 | 0.00 | 0.00 | 83 | 1014.8 |
| 20260902103701 | 23 | 138 | 0.0 | 0.0 | 0.00 | 0.00 | 0.00 | 83 | 1014.8 |
| 20260902103459 | 23 | 138 | 0.0 | 0.0 | 0.00 | 0.00 | 0.00 | 82 | 1014.8 |
| 20260902103359 | 23 | 138 | 0.0 | 0.0 | 0.00 | 0.00 | 0.00 | 82 | 1014.7 |
| 20260902103301 | 23 | 138 | 0.0 | 0.0 | 0.00 | 0.00 | 0.00 | 82 | 1014.8 |
| 20260902103105 | 23 | 138 | 0.0 | 0.0 | 0.00 | 0.00 | 0.00 | 82 | 1013.0 |
| 20260902103100 | 23 | 138 | 0.0 | 0.0 | 0.00 | 0.00 | 0.00 | 82 | 1014.8 |
| 20260902102959 | 23 | 138 | 0.0 | 0.0 | 0.00 | 0.00 | 0.00 | 82 | 1014.8 |
| 20260902102800 | 23 | 138 | 0.0 | 0.0 | 0.00 | 0.00 | 0.00 | 82 | 1014.8 |
| 20260902102702 | 23 | 138 | 0.0 | 0.0 | 0.00 | 0.00 | 0.00 | 82 | 1014.8 |
| 20260902102600 | 23 | 138 | 0.0 | 0.0 | 0.00 | 0.00 | 0.00 | 82 | 1014.8 |
| 20260902102500 | 23 | 138 | 0.0 | 0.0 | 0.00 | 0.00 | 0.00 | 82 | 1014.9 |
| 20260902102401 | 23 | 138 | 0.0 | 0.0 | 0.00 | 0.00 | 0.00 | 82 | 1014.8 |
| 20260902102259 | 23 | 138 | 0.0 | 0.0 | 0.00 | 0.00 | 0.00 | 82 | 1014.8 |
| 20260902102200 | 23 | 138 | 0.0 | 0.0 | 0.00 | 0.00 | 0.00 | 82 | 1014.9 |
| 20260902102100 | 23 | 138 | 0.0 | 0.0 | 0.00 | 0.00 | 0.00 | 82 | 1014.8 |
| 20260902101859 | 23 | 138 | 0.0 | 0.0 | 0.00 | 0.00 | 0.00 | 82 | 1014.8 |
| 20260902101800 | 23 | 138 | 0.0 | 0.0 | 0.00 | 0.00 | 0.00 | 82 | 1014.8 |
| 20260902101659 | 23 | 138 | 0.0 | 0.0 | 0.00 | 0.00 | 0.00 | 82 | 1014.9 |
| 20260902101601 | 23 | 138 | 0.0 | 0.0 | 0.00 | 0.00 | 0.00 | 82 | 1013.0 |
| 20260902101559 | 23 | 138 | 0.0 | 0.0 | 0.00 | 0.00 | 0.00 | 82 | 1014.8 |
| 20260902101359 | 23 | 138 | 0.0 | 0.0 | 0.00 | 0.00 | 0.00 | 82 | 1014.8 |
| 20260902101300 | 23 | 138 | 0.0 | 0.0 | 0.00 | 0.00 | 0.00 | 82 | 1014.8 |
| 20260902101101 | 23 | 138 | 0.0 | 0.0 | 0.00 | 0.00 | 0.00 | 81 | 1014.9 |
| 20260902101001 | 23 | 138 | 0.0 | 0.0 | 0.00 | 0.00 | 0.00 | 81 | 1014.8 |
| 20260902100900 | 23 | 138 | 0.0 | 0.0 | 0.00 | 0.00 | 0.00 | 81 | 1014.9 |
| 20260902100800 | 23 | 138 | 0.0 | 0.0 | 0.00 | 0.00 | 0.00 | 80 | 1014.8 |
| 20260902100600 | 23 | 138 | 0.0 | 0.0 | 0.00 | 0.00 | 0.00 | 80 | 1014.8 |
| 20260902100501 | 23 | 138 | 0.0 | 0.0 | 0.00 | 0.00 | 0.00 | 80 | 1014.8 |
| 20260902100400 | 23 | 138 | 0.0 | 0.0 | 0.00 | 0.00 | 0.00 | 80 | 1014.8 |
| 20260902100301 | 23 | 138 | 0.0 | 0.0 | 0.00 | 0.00 | 0.00 | 80 | 1014.8 |
| 20260902100201 | 23 | 138 | 0.0 | 0.0 | 0.00 | 0.00 | 0.00 | 80 | 1014.8 |
| 20260902100100 | 23 | 138 | 0.0 | 0.0 | 0.00 | 0.00 | 0.00 | 80 | 1014.8 |
| 20260902095959 | 23 | 138 | 0.0 | 0.0 | 0.00 | 0.00 | 0.00 | 80 | 1014.9 |
| 20260902095859 | 23 | 138 | 0.0 | 0.0 | 0.00 | 0.00 | 0.00 | 80 | 1014.8 |
| 20260902095759 | 23 | 138 | 0.0 | 0.0 | 0.00 | 0.00 | 0.00 | 80 | 1014.8 |
| 20260902095700 | 23 | 138 | 0.0 | 0.0 | 0.00 | 0.00 | 0.00 | 80 | 1014.8 |
| 20260902095559 | 24 | 138 | 0.0 | 0.0 | 0.00 | 0.00 | 0.00 | 80 | 1014.7 |
| 20260902095459 | 24 | 138 | 0.0 | 0.0 | 0.00 | 0.00 | 0.00 | 80 | 1014.7 |
| 20260902095359 | 24 | 138 | 0.0 | 0.0 | 0.00 | 0.00 | 0.00 | 80 | 1014.8 |
| 20260902095259 | 24 | 138 | 0.0 | 0.0 | 0.00 | 0.00 | 0.00 | 80 | 1014.7 |
| 20260902095159 | 24 | 138 | 0.0 | 0.0 | 0.00 | 0.00 | 0.00 | 80 | 1014.7 |
| 20260902095058 | 24 | 138 | 0.0 | 0.0 | 0.00 | 0.00 | 0.00 | 80 | 1014.7 |
| 20260902094958 | 24 | 138 | 0.0 | 0.0 | 0.00 | 0.00 | 0.00 | 80 | 1014.7 |
| 20260902094859 | 24 | 138 | 0.0 | 0.0 | 0.00 | 0.00 | 0.00 | 80 | 1014.7 |
| 20260902094800 | 24 | 138 | 0.0 | 0.0 | 0.00 | 0.00 | 0.00 | 79 | 1014.7 |
| 20260902094700 | 24 | 138 | 0.0 | 0.0 | 0.00 | 0.00 | 0.00 | 79 | 1014.7 |
| 20260902094600 | 24 | 138 | 0.0 | 0.0 | 0.00 | 0.00 | 0.00 | 79 | 1012.8 |
| 20260902094559 | 24 | 138 | 0.0 | 0.0 | 0.00 | 0.00 | 0.00 | 79 | 1014.7 |
| 20260902094459 | 24 | 138 | 0.0 | 0.0 | 0.00 | 0.00 | 0.00 | 79 | 1014.7 |
| 20260902094359 | 24 | 138 | 0.0 | 0.0 | 0.00 | 0.00 | 0.00 | 79 | 1014.7 |
| 20260902094259 | 24 | 138 | 0.0 | 0.0 | 0.00 | 0.00 | 0.00 | 79 | 1014.7 |
| 20260902094159 | 24 | 138 | 0.0 | 0.0 | 0.00 | 0.00 | 0.00 | 78 | 1014.7 |
| 20260902094058 | 24 | 138 | 0.0 | 0.0 | 0.00 | 0.00 | 0.00 | 78 | 1014.7 |
| 20260902093959 | 24 | 138 | 0.0 | 0.0 | 0.00 | 0.00 | 0.00 | 78 | 1014.7 |
| 20260902093759 | 24 | 138 | 0.0 | 0.0 | 0.00 | 0.00 | 0.00 | 78 | 1014.7 |
| 20260902093659 | 24 | 138 | 0.0 | 0.0 | 0.00 | 0.00 | 0.00 | 78 | 1014.7 |
| 20260902093559 | 24 | 138 | 0.0 | 0.0 | 0.00 | 0.00 | 0.00 | 78 | 1014.7 |
| 20260902093500 | 24 | 138 | 0.0 | 0.0 | 0.00 | 0.00 | 0.00 | 78 | 1014.7 |
| 20260902093359 | 24 | 138 | 0.0 | 0.0 | 0.00 | 0.00 | 0.00 | 78 | 1014.7 |
| 20260902093300 | 25 | 138 | 0.0 | 0.0 | 0.00 | 0.00 | 0.00 | 78 | 1014.7 |
| 20260902093200 | 25 | 138 | 0.0 | 0.0 | 0.00 | 0.00 | 0.00 | 78 | 1014.7 |
| 20260902093100 | 25 | 138 | 0.0 | 0.0 | 0.00 | 0.00 | 0.00 | 78 | 1012.8 |
| 20260902092959 | 25 | 138 | 0.0 | 0.0 | 0.00 | 0.00 | 0.00 | 78 | 1014.7 |
| 20260902092858 | 25 | 138 | 0.0 | 0.0 | 0.00 | 0.00 | 0.00 | 78 | 1014.7 |
| 20260902092758 | 25 | 138 | 0.0 | 0.0 | 0.00 | 0.00 | 0.00 | 78 | 1014.7 |
| 20260902092659 | 25 | 138 | 0.0 | 0.0 | 0.00 | 0.00 | 0.00 | 78 | 1014.7 |
| 20260902092558 | 25 | 138 | 0.0 | 0.0 | 0.00 | 0.00 | 0.00 | 78 | 1014.7 |
| 20260902092458 | 25 | 138 | 0.0 | 0.0 | 0.00 | 0.00 | 0.00 | 78 | 1014.7 |
| 20260902092359 | 25 | 138 | 0.0 | 0.0 | 0.00 | 0.00 | 0.00 | 78 | 1014.7 |
| 20260902091959 | 25 | 138 | 0.0 | 0.0 | 0.00 | 0.00 | 0.00 | 78 | 1014.7 |
| 20260902091859 | 25 | 138 | 0.0 | 0.0 | 0.00 | 0.00 | 0.00 | 77 | 1014.7 |
| 20260902091758 | 25 | 138 | 0.0 | 0.0 | 0.00 | 0.00 | 0.00 | 77 | 1014.7 |
| 20260902091606 | 25 | 138 | 0.0 | 0.0 | 0.00 | 0.00 | 0.00 | 77 | 1012.9 |
| 20260902091458 | 25 | 138 | 0.0 | 0.0 | 0.00 | 0.00 | 0.00 | 77 | 1014.7 |
| 20260902091358 | 25 | 138 | 0.0 | 0.0 | 0.00 | 0.00 | 0.00 | 76 | 1014.7 |
| 20260902091058 | 25 | 138 | 0.0 | 0.0 | 0.00 | 0.00 | 0.00 | 76 | 1014.8 |
| 20260902091001 | 25 | 138 | 0.0 | 0.0 | 0.00 | 0.00 | 0.00 | 77 | 1014.8 |
| 20260902090859 | 25 | 138 | 0.0 | 0.0 | 0.00 | 0.00 | 0.00 | 77 | 1014.7 |
| 20260902090759 | 25 | 138 | 0.0 | 0.0 | 0.00 | 0.00 | 0.00 | 77 | 1014.8 |
| 20260902090659 | 25 | 138 | 0.0 | 0.0 | 0.00 | 0.00 | 0.00 | 77 | 1014.8 |
| 20260902090600 | 25 | 138 | 0.0 | 0.0 | 0.00 | 0.00 | 0.00 | 77 | 1014.8 |
| 20260902090400 | 25 | 138 | 0.0 | 0.0 | 0.00 | 0.00 | 0.00 | 77 | 1014.8 |
| 20260902090259 | 25 | 138 | 0.0 | 0.0 | 0.00 | 0.00 | 0.00 | 77 | 1014.8 |
| 20260902090201 | 25 | 138 | 0.0 | 0.0 | 0.00 | 0.00 | 0.00 | 77 | 1014.7 |
| 20260902090105 | 25 | 138 | 0.0 | 0.0 | 0.00 | 0.00 | 0.00 | 76 | 1012.9 |
| 20260902090100 | 25 | 138 | 0.0 | 0.0 | 0.00 | 0.00 | 0.00 | 76 | 1014.7 |
| 20260902085959 | 25 | 138 | 0.0 | 0.0 | 0.00 | 0.00 | 0.00 | 76 | 1014.7 |
| 20260902085859 | 25 | 138 | 0.0 | 0.0 | 0.00 | 0.00 | 0.00 | 76 | 1014.7 |
| 20260902085759 | 25 | 138 | 0.0 | 0.0 | 0.00 | 0.00 | 0.00 | 76 | 1014.7 |
| 20260902085659 | 25 | 138 | 0.0 | 0.0 | 0.00 | 0.00 | 0.00 | 76 | 1014.7 |
| 20260902085558 | 25 | 138 | 0.0 | 0.0 | 0.00 | 0.00 | 0.00 | 76 | 1014.7 |
| 20260902085500 | 25 | 138 | 0.0 | 0.0 | 0.00 | 0.00 | 0.00 | 76 | 1014.7 |
| 20260902085359 | 25 | 138 | 0.0 | 0.0 | 0.00 | 0.00 | 0.00 | 76 | 1014.7 |
| 20260902085259 | 25 | 138 | 0.0 | 0.0 | 0.00 | 0.00 | 0.00 | 76 | 1014.7 |
| 20260902085200 | 25 | 138 | 0.0 | 0.0 | 0.00 | 0.00 | 0.00 | 76 | 1014.7 |
| 20260902085100 | 25 | 138 | 0.0 | 0.0 | 0.00 | 0.00 | 0.00 | 76 | 1014.7 |
| 20260902085001 | 25 | 138 | 0.0 | 0.0 | 0.00 | 0.00 | 0.00 | 75 | 1014.7 |
| 20260902084900 | 25 | 138 | 0.0 | 0.0 | 0.00 | 0.00 | 0.00 | 75 | 1014.7 |
| 20260902084800 | 25 | 138 | 0.0 | 0.0 | 0.00 | 0.00 | 0.00 | 75 | 1014.7 |
| 20260902084659 | 25 | 138 | 0.0 | 0.0 | 0.00 | 0.00 | 0.00 | 75 | 1014.7 |
| 20260902084606 | 25 | 138 | 0.0 | 0.0 | 0.00 | 0.00 | 0.00 | 75 | 1012.9 |
| 20260902084559 | 25 | 138 | 0.0 | 0.0 | 0.00 | 0.00 | 0.00 | 75 | 1014.7 |
| 20260902084458 | 25 | 138 | 0.0 | 0.0 | 0.00 | 0.00 | 0.00 | 75 | 1014.7 |
| 20260902084259 | 25 | 138 | 0.0 | 0.0 | 0.00 | 0.00 | 0.00 | 75 | 1014.7 |
| 20260902084059 | 26 | 138 | 0.0 | 0.0 | 0.00 | 0.00 | 0.00 | 74 | 1014.7 |
| 20260902083901 | 26 | 138 | 0.0 | 0.0 | 0.00 | 0.00 | 0.00 | 74 | 1014.8 |
| 20260902083800 | 26 | 138 | 0.0 | 0.0 | 0.00 | 0.00 | 0.00 | 74 | 1014.7 |
| 20260902083658 | 26 | 138 | 0.0 | 0.0 | 0.00 | 0.00 | 0.00 | 74 | 1014.8 |
| 20260902083559 | 26 | 138 | 0.0 | 0.0 | 0.00 | 0.00 | 0.00 | 74 | 1014.8 |
| 20260902083500 | 26 | 138 | 0.0 | 0.0 | 0.00 | 0.00 | 0.00 | 74 | 1014.8 |
| 20260902083401 | 26 | 138 | 0.0 | 0.0 | 0.00 | 0.00 | 0.00 | 74 | 1014.8 |
| 20260902083259 | 26 | 138 | 0.0 | 0.0 | 0.00 | 0.00 | 0.00 | 74 | 1014.8 |
| 20260902083200 | 26 | 138 | 0.0 | 0.0 | 0.00 | 0.00 | 0.00 | 74 | 1014.8 |
| 20260902083114 | 26 | 138 | 0.0 | 0.0 | 0.00 | 0.00 | 0.00 | 73 | 1012.9 |
| 20260902082959 | 26 | 138 | 0.0 | 0.0 | 0.00 | 0.00 | 0.00 | 73 | 1014.8 |
| 20260902082900 | 26 | 138 | 0.0 | 0.0 | 0.00 | 0.00 | 0.00 | 73 | 1014.8 |
| 20260902082659 | 26 | 138 | 0.0 | 0.0 | 0.00 | 0.00 | 0.00 | 73 | 1014.8 |
| 20260902082459 | 26 | 138 | 0.0 | 0.0 | 0.00 | 0.00 | 0.00 | 73 | 1014.9 |
| 20260902082400 | 26 | 138 | 0.0 | 0.0 | 0.00 | 0.00 | 0.00 | 73 | 1014.8 |
| 20260902082258 | 26 | 138 | 0.0 | 0.0 | 0.00 | 0.00 | 0.00 | 73 | 1014.9 |
| 20260902082158 | 26 | 138 | 0.0 | 0.0 | 0.00 | 0.00 | 0.00 | 73 | 1014.8 |
| 20260902082059 | 26 | 138 | 0.0 | 0.0 | 0.00 | 0.00 | 0.00 | 73 | 1014.9 |
| 20260902082000 | 26 | 138 | 0.0 | 0.0 | 0.00 | 0.00 | 0.00 | 73 | 1014.8 |
| 20260902081859 | 26 | 138 | 0.0 | 0.0 | 0.00 | 0.00 | 0.00 | 73 | 1014.8 |
| 20260902081659 | 26 | 138 | 0.0 | 0.0 | 0.00 | 0.00 | 0.00 | 73 | 1014.8 |
| 20260902081559 | 26 | 138 | 0.0 | 0.0 | 0.00 | 0.00 | 0.00 | 73 | 1014.8 |
| 20260902081401 | 26 | 138 | 0.0 | 0.0 | 0.00 | 0.00 | 0.00 | 72 | 1014.8 |
| 20260902081258 | 26 | 138 | 0.0 | 0.0 | 0.00 | 0.00 | 0.00 | 72 | 1014.8 |
| 20260902081200 | 26 | 138 | 0.0 | 0.0 | 0.00 | 0.00 | 0.00 | 72 | 1014.8 |
| 20260902081058 | 26 | 138 | 0.0 | 0.0 | 0.00 | 0.00 | 0.00 | 72 | 1014.8 |
| 20260902081000 | 26 | 138 | 0.0 | 0.0 | 0.00 | 0.00 | 0.00 | 72 | 1014.8 |
| 20260902080858 | 26 | 138 | 0.0 | 0.0 | 0.00 | 0.00 | 0.00 | 72 | 1014.8 |
| 20260902080758 | 26 | 138 | 0.0 | 0.0 | 0.00 | 0.00 | 0.00 | 72 | 1014.8 |
| 20260902080559 | 26 | 138 | 0.0 | 0.0 | 0.00 | 0.00 | 0.00 | 72 | 1014.8 |
| 20260902080458 | 26 | 138 | 0.0 | 0.0 | 0.00 | 0.00 | 0.00 | 72 | 1014.8 |
| 20260902080358 | 26 | 138 | 0.0 | 0.0 | 0.00 | 0.00 | 0.00 | 72 | 1014.8 |
| 20260902080259 | 26 | 138 | 0.0 | 0.0 | 0.00 | 0.00 | 0.00 | 72 | 1014.8 |
| 20260902080100 | 26 | 138 | 0.0 | 0.0 | 0.00 | 0.00 | 0.00 | 72 | 1013.0 |
| 20260902075959 | 26 | 138 | 0.0 | 0.0 | 0.00 | 0.00 | 0.00 | 71 | 1014.8 |
| 20260902075858 | 26 | 138 | 0.0 | 0.0 | 0.00 | 0.00 | 0.00 | 71 | 1014.8 |
| 20260902075758 | 26 | 138 | 0.0 | 0.0 | 0.00 | 0.00 | 0.00 | 71 | 1014.8 |
| 20260902075659 | 26 | 138 | 0.0 | 0.0 | 0.00 | 0.00 | 0.00 | 71 | 1014.7 |
| 20260902075558 | 26 | 138 | 0.0 | 0.0 | 0.00 | 0.00 | 0.00 | 71 | 1014.7 |
| 20260902075501 | 26 | 138 | 0.0 | 0.0 | 0.00 | 0.00 | 0.00 | 71 | 1014.7 |
| 20260902075158 | 26 | 138 | 0.0 | 3.2 | 0.00 | 0.00 | 0.00 | 71 | 1014.7 |
| 20260902075059 | 26 | 138 | 0.0 | 3.2 | 0.00 | 0.00 | 0.00 | 71 | 1014.7 |
| 20260902074959 | 26 | 138 | 0.0 | 3.2 | 0.00 | 0.00 | 0.00 | 71 | 1014.7 |
| 20260902074858 | 26 | 138 | 0.0 | 3.2 | 0.00 | 0.00 | 0.00 | 71 | 1014.7 |
| 20260902074759 | 26 | 138 | 0.0 | 3.2 | 0.00 | 0.00 | 0.00 | 71 | 1014.7 |
| 20260902074658 | 26 | 138 | 0.0 | 3.2 | 0.00 | 0.00 | 0.00 | 71 | 1014.7 |
| 20260902074616 | 26 | 138 | 0.0 | 3.2 | 0.00 | 0.00 | 0.00 | 71 | 1012.8 |
| 20260902074459 | 26 | 138 | 0.0 | 3.2 | 0.00 | 0.00 | 0.00 | 70 | 1014.7 |
| 20260902074358 | 27 | 136 | 0.0 | 0.0 | 0.00 | 0.00 | 0.00 | 70 | 1014.7 |
| 20260902074259 | 26 | 136 | 0.0 | 0.0 | 0.00 | 0.00 | 0.00 | 70 | 1014.7 |
| 20260902074158 | 27 | 136 | 0.0 | 0.0 | 0.00 | 0.00 | 0.00 | 70 | 1014.7 |
| 20260902074058 | 27 | 136 | 0.0 | 3.2 | 0.00 | 0.00 | 0.00 | 70 | 1014.7 |
| 20260902073958 | 27 | 136 | 0.0 | 3.2 | 0.00 | 0.00 | 0.00 | 70 | 1014.7 |